GFSMA_sfc_wetblb_000.txt.gz
Wetbulb
59.71 60.27 60.20 60.54 61.42 62.38 61.78 62.17 61.98 62.10 62.51 62.61 63.10 62.65 62.64 62.76 63.79 65.03 66.08 67.17 67.92 70.41 70.44 71.13 71.80 71.70 72.04 71.89 71.37 70.92 69.56 69.42 70.20 70.34 69.83 70.40 70.43 69.98 68.96 68.11 67.28 66.41 65.77
60.07 59.93 59.94 60.79 61.27 60.88 60.60 60.96 61.06 61.45 61.52 62.20 62.21 62.42 62.40 62.24 62.97 64.07 65.40 66.42 67.31 69.58 70.81 70.52 71.92 71.67 72.07 71.40 71.03 69.69 69.57 69.52 69.77 69.22 69.22 68.82 69.61 69.15 68.01 67.17 66.28 65.65 65.45
60.87 60.51 60.38 61.08 60.03 60.15 60.11 59.93 60.24 60.84 60.81 60.91 61.26 61.88 62.09 62.30 62.72 63.26 64.89 66.13 67.33 68.69 70.12 70.75 70.55 71.33 71.84 71.21 71.07 70.68 69.55 69.24 68.91 68.73 69.02 68.98 68.34 67.74 66.95 66.14 65.90 65.48 64.90
60.89 60.17 60.30 60.06 59.98 59.85 59.68 59.09 59.30 59.28 59.89 60.00 60.38 61.03 61.76 61.84 62.61 63.17 64.62 66.11 67.59 68.77 68.54 70.27 69.29 70.20 70.41 69.52 71.31 69.69 68.51 68.76 68.60 68.32 68.39 68.38 67.54 67.04 66.65 65.66 65.34 64.93 64.50
61.76 60.23 59.79 59.56 59.57 59.13 58.81 58.54 58.10 58.97 58.66 59.00 59.67 60.33 61.02 61.40 62.22 64.22 64.71 66.09 67.36 67.45 68.68 69.20 68.58 69.66 70.29 70.28 70.57 68.88 68.41 68.04 68.66 67.91 68.49 67.57 66.76 66.28 66.54 65.29 64.91 64.43 63.93
62.12 60.82 59.55 58.78 59.04 58.43 57.85 57.36 57.44 58.56 58.87 59.09 60.06 60.64 60.35 60.95 62.06 63.51 64.30 65.93 66.76 66.82 67.70 67.89 68.68 69.51 68.96 69.77 69.92 69.16 68.19 68.29 67.67 67.91 67.33 66.82 66.83 66.65 66.05 65.00 64.81 64.33 63.74
61.38 59.74 58.90 58.72 58.75 58.09 57.72 57.26 57.52 57.53 57.88 58.80 57.74 58.12 59.71 61.61 62.06 62.70 64.58 65.29 65.04 64.86 66.85 68.22 68.83 69.11 68.64 69.50 68.36 67.91 67.81 67.99 67.91 67.02 66.81 66.32 66.67 66.12 65.58 64.90 64.45 64.03 63.32
61.21 59.65 58.66 58.92 58.46 57.73 57.12 56.92 57.38 56.78 57.36 58.38 56.84 56.90 55.57 58.41 60.94 62.84 62.68 63.66 64.56 66.04 66.18 67.83 67.32 67.72 67.68 66.71 66.78 67.64 67.75 68.39 67.63 66.52 66.57 66.22 66.46 66.09 65.12 64.57 64.22 63.84 63.34
61.27 60.65 59.70 59.12 58.34 57.51 56.48 56.40 57.26 57.65 56.64 57.24 58.51 57.72 54.80 53.85 57.94 61.37 62.40 63.17 64.45 65.52 65.49 66.91 66.44 66.49 66.51 65.21 66.31 67.45 67.43 66.91 66.45 65.28 65.38 65.95 66.39 65.38 64.91 64.36 64.44 63.81 63.41
60.88 60.29 59.96 59.11 58.12 57.73 56.84 57.18 58.02 58.65 58.71 57.26 58.65 60.14 58.92 59.30 56.80 56.06 61.32 62.75 64.74 64.27 64.78 65.68 64.99 65.72 65.94 65.86 67.12 67.05 65.80 65.13 64.45 64.73 66.47 66.30 65.99 65.48 64.74 64.38 63.90 63.59 63.22
60.82 60.12 59.23 58.57 58.06 57.85 57.54 57.48 58.04 58.15 58.66 58.37 59.18 59.48 59.66 60.13 60.14 59.31 55.50 59.64 62.19 63.58 64.87 65.60 65.17 65.14 65.44 65.43 65.38 65.39 64.73 64.79 64.93 66.17 66.35 66.64 65.87 65.30 65.04 64.55 63.74 63.38 63.05
59.16 59.07 58.75 58.54 58.04 58.17 58.13 58.15 58.53 58.45 58.68 59.24 59.78 60.46 60.16 58.99 58.00 58.15 58.65 58.85 59.13 61.93 64.12 64.66 64.74 64.48 64.50 64.45 65.75 64.74 63.65 64.20 63.33 63.92 64.80 63.92 65.99 65.88 64.71 64.27 63.84 63.41 63.44
57.38 57.54 57.74 57.64 58.32 58.85 59.24 59.03 59.15 59.08 58.97 59.98 59.78 60.54 60.71 60.38 61.27 61.20 60.92 59.16 58.55 60.95 61.87 63.80 64.40 64.51 64.68 65.06 65.41 65.19 64.67 62.18 61.48 61.55 62.11 63.18 64.23 64.01 64.83 64.76 64.18 64.10 63.11
56.30 57.34 58.05 58.59 59.40 60.11 59.88 59.86 60.10 59.66 59.67 60.76 60.75 60.65 60.65 60.87 62.75 62.58 60.56 60.03 57.31 58.59 60.43 60.95 63.62 64.11 64.33 64.34 64.71 64.49 63.51 61.67 60.43 60.21 60.53 60.98 62.04 62.70 63.17 63.39 63.75 63.56 63.16
57.29 57.81 58.50 58.82 59.59 59.83 60.19 60.19 60.61 60.86 61.08 60.83 60.79 61.13 61.87 61.62 62.92 63.09 62.09 62.61 59.44 56.52 57.31 60.38 60.61 63.61 63.97 64.74 64.27 63.57 63.33 61.06 61.49 59.37 59.54 59.37 59.94 60.48 60.97 61.01 61.17 61.09 61.16
57.70 58.02 58.51 58.99 59.44 60.11 60.55 60.49 61.25 62.26 61.94 60.76 61.28 62.24 61.55 62.24 62.18 62.16 62.26 62.28 60.86 60.11 56.94 60.86 61.34 62.93 63.66 63.90 64.09 62.67 62.37 61.53 60.02 59.40 59.32 58.70 58.24 58.43 58.90 58.89 58.87 59.32 59.72
57.24 58.15 58.85 59.27 59.39 59.75 60.06 61.30 61.48 61.72 61.42 61.55 61.46 61.90 61.18 61.84 62.00 61.66 62.00 62.42 60.78 61.35 58.73 60.54 62.16 62.99 62.39 62.16 62.09 61.90 62.24 61.53 60.44 58.52 58.93 57.84 56.84 56.69 57.17 57.13 57.09 57.54 57.72
57.77 58.42 59.56 59.61 59.72 59.64 60.13 60.45 60.93 61.66 61.46 61.11 61.28 61.44 60.67 61.25 61.51 61.16 61.91 61.22 61.22 61.75 60.38 58.33 60.30 60.77 61.18 61.28 60.52 60.13 60.50 60.30 60.20 58.53 57.74 56.94 56.18 55.45 55.03 54.83 54.51 54.26 53.66
58.09 59.23 59.91 59.90 59.58 60.02 59.84 59.68 59.98 60.32 61.33 61.44 61.85 61.17 60.93 61.39 61.09 61.16 61.41 61.06 61.22 61.54 61.11 60.11 59.05 60.20 60.26 60.22 58.85 58.96 58.10 58.00 57.83 58.47 56.67 55.63 54.79 54.29 53.91 53.76 53.02 52.43 51.43
58.81 59.50 60.11 60.16 60.22 60.31 59.95 59.47 59.72 60.26 61.48 61.54 61.30 61.24 61.65 61.20 60.89 60.87 60.89 60.57 60.91 60.66 60.43 59.89 58.95 57.65 58.35 58.23 59.19 58.49 58.14 58.14 57.21 56.33 55.77 54.40 53.74 53.48 53.00 53.28 53.91 54.28 51.87
59.39 60.01 60.43 60.41 60.57 60.37 59.96 59.55 59.81 60.25 61.28 61.19 61.24 61.06 61.42 60.54 59.04 60.02 61.13 60.57 60.92 59.95 59.73 58.77 57.63 57.06 56.64 57.39 58.03 57.32 57.54 56.38 56.63 57.61 56.58 54.67 55.36 55.31 54.49 53.01 53.57 51.98 48.89
59.14 60.08 60.43 60.46 60.37 60.94 49.45 53.44 58.36 60.09 61.51 61.41 60.29 60.16 60.01 57.82 56.12 54.58 55.50 55.90 59.06 60.15 58.55 59.10 57.74 57.56 57.24 58.08 55.64 56.36 55.69 55.99 54.42 56.23 56.72 54.09 55.40 53.11 53.26 53.56 49.12 47.87 47.22
58.13 58.95 58.96 59.90 60.25 58.91 47.09 49.63 53.26 61.23 61.07 60.75 60.35 60.92 61.16 60.08 59.68 59.39 53.83 53.77 54.28 54.34 55.69 59.58 58.88 58.69 57.47 57.58 56.63 54.98 55.21 55.50 55.93 56.58 57.40 53.16 53.71 51.22 51.71 50.84 47.06 46.36 46.10
56.91 57.15 56.93 58.71 59.07 56.56 47.09 47.82 52.53 60.79 60.84 61.34 61.35 61.28 61.23 61.00 58.91 60.13 60.39 60.04 60.16 59.99 59.69 59.57 60.04 59.55 60.38 58.85 59.09 57.98 57.18 56.62 55.62 55.19 57.36 53.23 52.05 51.83 51.08 52.22 47.58 46.41 45.42
54.52 55.30 55.88 58.26 58.61 56.70 45.64 46.37 56.82 61.19 60.57 60.95 61.52 60.45 60.85 60.79 48.11 51.23 60.24 58.38 55.10 54.29 48.20 49.99 49.33 47.79 47.36 48.28 53.60 57.73 57.11 58.06 56.52 54.57 53.44 53.24 51.26 51.38 51.62 50.06 49.73 46.17 45.00
54.60 54.28 54.73 57.35 54.65 57.48 44.92 46.55 56.12 60.26 59.15 58.93 59.28 59.15 52.68 56.72 45.64 48.47 57.00 55.25 54.29 53.20 52.82 50.53 50.68 50.35 51.14 50.73 49.12 59.73 58.24 56.59 52.03 52.19 53.73 52.48 50.35 50.40 49.28 50.47 48.82 47.81 48.02

GFSMA_sfc_wetblb_006.txt.gz
Wetbulb
68.85 68.58 68.11 67.40 67.44 67.84 66.50 66.77 66.97 66.74 66.63 66.64 67.05 66.66 66.19 66.34 66.85 66.38 66.96 67.09 67.11 68.40 68.81 69.12 70.25 70.56 70.79 71.64 71.93 72.08 71.36 70.98 70.84 70.48 70.05 70.63 71.12 71.24 71.05 70.18 69.76 68.81 68.06
68.82 68.47 68.31 68.30 68.65 69.20 67.90 66.49 66.61 66.16 65.86 66.29 66.62 66.94 66.80 66.34 66.62 67.53 67.17 67.06 67.50 68.15 68.51 68.71 69.95 70.03 70.35 71.53 71.76 71.90 71.21 70.84 70.82 70.09 70.03 70.19 70.26 70.64 70.19 69.09 68.47 67.66 66.89
69.44 69.33 70.07 70.05 69.32 70.68 69.07 67.07 66.47 66.68 65.49 65.68 65.82 66.47 66.97 67.20 66.83 66.91 66.80 66.35 67.51 68.35 68.38 68.79 69.21 69.14 69.58 71.70 71.91 71.85 71.32 70.85 70.53 69.84 70.03 69.70 69.72 69.80 69.43 68.35 67.72 66.73 65.87
69.63 70.03 69.54 68.95 69.54 69.21 67.56 65.75 66.48 64.94 64.81 64.59 65.01 65.52 66.16 66.16 66.36 66.32 65.97 66.08 67.38 68.34 68.70 69.37 69.16 69.06 70.08 71.34 72.27 71.84 71.24 70.42 69.94 69.86 69.72 69.42 69.59 68.99 68.36 67.22 66.36 65.90 65.38
69.63 70.08 69.34 69.13 68.92 65.98 66.03 67.01 65.73 65.45 64.36 63.94 64.80 65.45 66.21 64.95 65.68 65.71 65.67 67.07 68.29 68.54 68.32 69.33 69.35 69.50 69.85 70.89 72.45 72.12 71.48 69.15 69.41 69.49 69.10 69.34 69.27 68.47 67.74 67.20 65.94 65.41 65.12
69.28 68.99 68.61 67.84 65.49 65.34 66.40 66.27 65.37 65.71 64.51 64.20 64.07 64.04 64.98 65.23 65.15 64.90 65.71 66.95 68.22 68.67 68.97 69.61 70.39 70.20 69.85 66.96 69.97 69.52 70.61 69.55 69.43 69.11 68.65 68.25 67.98 67.72 67.25 66.59 65.41 64.86 64.39
68.98 68.81 67.72 66.99 67.20 65.08 63.62 64.95 65.39 64.52 64.08 64.93 64.26 63.61 64.02 65.08 65.46 64.98 65.98 66.90 67.84 68.29 69.63 70.08 70.55 71.12 70.54 68.42 69.56 69.41 69.61 69.05 68.60 68.43 67.82 66.77 66.98 67.35 66.96 65.81 64.84 64.44 64.22
68.60 68.08 67.63 66.86 65.84 63.89 64.62 64.96 64.32 64.25 64.19 64.76 62.55 62.25 58.49 60.92 63.28 64.55 66.10 66.80 67.74 68.57 68.81 69.64 70.64 70.87 72.06 71.00 70.58 68.78 68.56 68.80 68.21 66.26 66.77 66.15 66.95 66.52 65.33 65.02 64.74 64.17 63.56
67.98 67.53 66.89 66.27 65.57 65.84 65.48 65.13 64.62 63.13 61.72 63.84 64.75 62.70 58.14 56.59 59.75 63.61 65.55 66.58 67.70 69.42 69.06 70.05 70.50 70.91 71.09 70.74 68.63 68.18 67.68 67.61 67.15 66.74 66.49 66.57 65.33 63.80 64.85 65.11 64.49 63.81 63.73
66.56 66.43 66.62 66.11 66.09 65.72 65.29 64.63 64.11 64.07 63.78 62.35 64.08 63.66 64.31 64.21 58.31 57.75 65.54 66.33 67.47 67.98 68.59 69.59 70.29 68.62 67.66 67.70 67.12 67.27 66.05 66.50 66.36 65.87 65.31 64.32 64.47 63.38 64.94 64.64 64.21 64.49 63.70
66.27 65.54 66.18 65.58 65.53 65.14 65.21 65.01 63.98 64.13 64.42 63.67 62.22 62.31 63.31 63.46 63.67 60.00 59.75 63.15 66.81 67.98 68.95 70.01 69.34 69.48 68.61 66.65 66.40 65.76 64.84 64.47 63.26 64.24 64.54 64.19 65.08 65.47 64.96 64.74 64.47 64.05 63.75
65.51 65.28 65.07 65.38 65.80 65.96 65.17 64.64 64.75 64.50 65.38 65.33 64.52 63.54 63.58 62.61 60.79 63.77 63.52 63.63 63.87 66.10 68.13 68.65 67.91 67.71 66.20 65.41 64.91 63.51 62.20 61.77 62.34 62.82 62.76 63.97 65.67 65.88 65.21 64.72 64.39 64.11 63.76
63.72 64.45 65.37 65.48 66.10 66.17 65.86 65.65 65.42 65.28 65.01 64.83 64.85 63.21 64.32 64.58 68.15 65.93 65.22 63.16 61.83 64.15 63.90 65.54 65.38 64.81 64.14 63.30 63.21 62.95 62.89 61.81 61.47 61.17 61.83 63.22 63.90 64.47 65.21 65.15 64.55 64.16 63.80
63.68 65.72 65.57 65.65 65.63 65.76 66.25 66.55 66.06 65.41 65.65 65.28 64.83 65.79 66.03 66.29 67.05 68.28 66.91 64.02 60.57 62.99 62.51 60.98 63.73 62.80 62.67 62.88 62.70 62.54 61.78 60.62 59.73 59.29 59.93 60.34 60.04 61.60 61.76 63.69 64.02 63.84 63.76
64.24 65.06 65.17 65.27 66.19 65.93 65.89 65.97 65.47 65.79 65.77 64.87 65.42 66.65 67.52 66.36 65.97 70.40 70.83 67.13 63.99 59.38 58.76 60.46 59.67 61.71 62.30 62.58 62.71 62.44 61.32 59.41 60.23 58.95 59.50 59.63 59.70 59.71 61.05 61.35 61.85 62.19 62.07
64.36 64.48 64.43 65.92 66.13 66.18 65.65 65.99 66.46 65.55 65.57 65.00 64.83 65.24 65.33 65.94 67.43 67.75 67.68 68.10 68.28 62.76 58.72 61.10 60.53 61.25 62.45 62.78 62.21 61.21 61.90 61.38 59.85 59.72 59.55 58.39 57.86 58.52 59.44 59.84 60.45 61.43 61.33
64.80 63.95 63.66 64.55 65.44 65.39 66.11 66.29 64.99 64.33 64.63 64.70 65.63 64.47 65.71 66.61 67.59 66.69 67.62 66.83 65.61 63.61 59.52 60.21 61.03 61.99 61.92 61.89 62.35 62.10 63.69 62.15 61.66 59.52 59.88 58.59 57.67 57.71 58.19 58.92 59.54 60.11 59.48
64.61 63.75 64.03 64.13 64.36 65.47 65.81 65.11 63.92 62.87 63.03 63.77 63.22 65.27 65.28 65.26 66.78 67.42 65.93 65.05 63.82 62.63 60.44 58.86 59.94 60.81 60.72 61.57 62.54 62.34 62.73 63.23 63.37 59.83 58.31 57.15 56.45 56.69 57.36 57.38 57.17 55.99 54.41
64.11 64.03 64.41 63.82 64.32 64.73 65.18 65.33 64.61 62.74 62.65 64.34 64.82 65.31 65.88 66.46 65.97 66.16 65.79 64.28 62.05 62.07 61.16 59.47 58.84 60.93 61.09 62.08 61.24 62.94 62.56 63.21 61.96 59.58 56.75 55.97 55.91 55.72 55.30 54.66 53.95 53.04 51.61
64.58 65.27 65.26 64.89 64.93 64.45 64.97 65.00 63.44 62.65 63.44 64.48 64.62 65.69 65.84 64.91 66.20 65.52 65.36 64.99 64.11 62.29 61.44 59.94 58.88 58.96 59.88 61.61 61.50 60.41 59.17 60.61 59.25 59.76 56.59 57.30 56.15 54.40 53.91 53.98 52.93 50.89 48.68
65.29 65.45 65.16 65.03 65.35 64.78 63.80 63.87 63.22 65.09 64.82 63.77 64.35 64.08 64.24 62.38 58.90 62.59 66.49 63.93 64.56 62.73 61.09 59.32 58.02 58.18 58.44 59.02 58.98 60.68 58.57 58.87 60.55 60.46 59.76 59.55 58.96 57.60 54.68 51.96 51.72 50.09 48.41
65.23 64.95 64.69 64.74 64.75 63.58 50.57 55.14 60.98 64.21 65.36 65.28 64.78 63.55 64.25 61.39 56.69 54.54 55.61 56.07 63.20 63.09 60.10 59.00 57.60 57.31 57.77 59.26 60.40 60.22 59.37 57.89 56.83 62.80 61.35 59.61 58.36 55.85 56.00 54.66 48.47 47.77 47.36
65.83 64.99 65.02 64.94 64.57 63.69 48.72 49.48 53.11 64.16 65.74 65.31 65.82 65.14 63.40 62.48 61.53 61.39 53.98 54.31 53.94 53.43 57.95 62.21 58.15 57.91 59.10 62.46 63.03 62.70 61.81 60.31 59.36 60.93 59.96 56.02 57.63 55.33 54.22 51.45 47.01 46.38 45.69
65.79 65.20 65.02 65.37 64.40 61.72 47.65 47.49 51.84 64.95 65.91 65.22 65.22 65.11 65.04 63.66 63.43 64.02 63.15 61.56 61.94 62.13 63.24 62.29 61.02 61.87 66.07 66.38 66.48 65.06 64.13 64.64 63.04 61.28 61.61 55.54 57.59 55.57 54.35 51.96 46.32 45.40 44.53
65.49 65.05 65.18 65.29 65.02 62.79 46.91 47.67 55.79 62.38 64.93 64.39 65.47 65.47 64.83 65.08 50.00 51.36 64.21 62.93 62.37 59.18 50.58 50.91 53.79 53.54 52.06 53.48 59.68 62.88 62.30 60.54 59.37 60.31 62.51 58.43 57.49 55.40 53.58 51.21 49.58 45.26 44.31
65.04 64.87 65.17 65.91 58.85 63.64 46.40 46.94 55.44 62.87 63.98 63.51 65.19 65.16 50.67 60.97 47.13 50.64 65.24 64.35 62.74 62.76 62.54 62.21 62.44 57.90 60.05 57.90 52.10 66.74 63.49 60.98 61.19 60.14 62.82 58.32 56.88 55.67 52.51 54.26 52.40 50.49 49.62

GFSMA_sfc_wetblb_009.txt.gz
Wetbulb
70.60 69.75 70.40 68.72 68.56 67.93 67.93 68.54 68.16 68.13 68.55 67.05 66.16 66.74 66.44 66.10 67.26 66.85 67.01 68.14 67.32 67.27 67.90 69.06 69.34 69.93 71.02 70.87 71.90 71.48 71.61 71.02 70.70 70.11 69.98 70.02 70.35 70.36 70.57 70.31 70.62 70.05 69.26
70.37 68.98 69.06 68.86 70.08 69.81 68.22 67.80 67.17 67.12 66.14 65.14 66.54 66.68 67.04 65.83 65.73 67.00 66.61 67.26 68.04 67.82 67.97 69.01 69.21 69.96 70.76 70.88 71.72 71.75 71.17 70.95 70.26 70.68 69.99 69.85 69.76 70.15 70.76 70.36 69.59 68.81 68.17
70.95 69.90 68.65 70.28 70.22 69.57 69.08 67.88 68.07 67.80 65.85 65.90 65.98 65.27 66.30 66.97 66.89 67.46 67.61 65.74 67.26 68.41 69.28 68.92 68.88 70.00 70.16 70.18 71.61 72.05 71.43 70.88 70.89 70.29 69.60 69.51 69.56 69.54 70.09 69.71 68.73 67.78 66.69
70.34 69.34 69.04 69.81 70.69 69.78 69.80 68.45 65.86 65.81 66.24 63.79 64.43 65.86 65.94 66.23 66.46 67.15 65.51 66.91 66.50 67.83 68.23 69.47 69.33 69.91 69.64 69.91 71.91 72.17 71.58 70.78 70.45 69.42 69.59 69.14 69.27 68.68 69.22 69.08 67.77 66.50 65.75
69.86 70.00 69.39 69.79 70.23 69.54 67.92 66.85 66.33 67.79 65.68 64.60 64.73 66.51 65.92 65.81 65.43 65.59 66.97 66.23 67.73 67.44 67.42 69.01 70.22 70.14 70.23 70.48 71.54 72.06 71.73 71.08 70.27 69.51 69.20 69.34 69.05 68.84 68.51 67.72 66.36 65.61 65.32
69.42 69.96 69.44 69.06 69.37 67.70 66.42 66.76 66.75 66.32 66.46 66.31 63.84 65.05 65.88 65.78 65.09 65.60 66.53 65.94 66.60 67.24 68.83 69.36 68.85 68.30 69.87 68.74 71.29 72.38 72.24 71.56 70.37 69.54 68.68 68.19 68.33 68.20 67.61 67.19 66.20 65.23 64.73
69.99 69.56 68.63 67.75 67.87 68.04 67.24 66.73 65.89 63.23 64.91 66.59 64.90 63.85 65.31 65.21 65.88 64.81 64.80 65.44 65.86 67.11 68.64 68.39 69.71 70.00 69.93 68.06 69.33 72.20 72.61 71.29 69.39 68.13 67.38 66.86 66.96 67.57 67.10 66.68 66.05 64.85 64.49
69.26 68.86 68.11 67.10 67.51 67.75 66.12 65.20 65.09 63.94 64.17 66.38 62.62 62.90 59.17 61.79 63.44 64.15 64.56 64.89 66.64 67.02 67.38 68.18 69.06 70.92 71.69 69.90 70.66 70.31 71.35 70.86 69.33 68.50 67.46 66.28 66.52 67.07 66.49 65.86 65.15 64.49 63.85
68.27 68.19 67.74 67.04 66.90 66.86 65.60 66.17 65.61 63.99 63.08 64.09 64.53 63.43 58.79 55.86 59.09 63.57 64.69 65.22 67.10 67.83 68.69 68.97 69.69 70.29 71.13 71.51 70.34 70.30 68.88 68.65 68.68 67.81 66.15 65.65 66.25 66.05 65.27 65.03 64.29 63.66 63.57
66.91 66.83 67.18 66.78 66.95 66.66 66.07 65.59 65.77 64.76 63.96 62.57 64.88 65.97 65.10 64.38 58.72 57.63 63.09 66.38 68.33 68.31 68.94 69.26 71.17 70.73 70.75 70.98 69.84 68.47 66.89 67.09 67.38 66.53 65.34 64.34 64.19 63.19 64.65 64.78 64.11 64.60 63.83
66.75 65.66 66.57 66.15 66.24 67.28 65.94 65.65 64.50 64.36 66.02 64.99 64.42 64.18 63.72 62.82 61.69 61.92 57.96 61.50 67.08 68.94 68.59 71.16 70.09 70.44 70.21 70.05 69.05 66.79 65.33 65.17 64.96 65.23 65.13 64.27 63.37 62.99 65.04 64.84 64.50 64.12 63.83
66.04 65.91 65.64 65.97 66.37 66.29 65.66 66.31 65.31 64.97 65.99 66.06 66.99 64.32 62.21 61.43 60.78 59.19 63.29 63.91 63.56 65.91 69.23 69.67 69.08 66.83 67.54 68.31 67.48 65.17 63.97 63.41 62.58 62.82 63.69 64.24 63.65 64.10 65.14 64.70 64.59 64.05 63.86
66.22 65.70 65.79 65.92 66.53 66.79 66.38 66.41 65.89 65.82 66.14 65.31 65.41 64.53 64.52 64.00 66.15 65.41 64.23 64.38 62.33 65.46 65.61 65.29 65.77 64.96 63.94 66.05 65.49 64.06 63.17 61.56 60.72 61.10 62.05 63.04 63.93 64.77 64.88 65.04 64.39 64.31 64.24
64.83 65.90 65.87 66.21 66.36 65.83 66.13 66.84 68.08 66.85 66.26 66.44 65.68 66.37 66.10 64.90 66.46 68.42 66.08 65.24 61.92 62.41 62.55 61.23 62.91 62.97 62.16 62.21 62.52 62.38 61.55 60.32 59.88 59.87 60.08 60.61 62.19 63.16 63.41 63.82 64.02 64.05 64.27
64.92 65.45 65.61 65.70 65.86 65.98 65.92 66.23 66.61 65.53 66.02 65.79 66.61 66.49 66.34 68.60 67.32 67.24 69.04 66.61 66.56 60.14 57.77 59.37 59.74 61.86 61.60 61.91 62.29 61.96 61.65 60.93 60.72 59.30 59.00 59.23 59.84 59.67 60.06 61.54 61.79 61.87 62.55
64.93 64.81 64.95 65.56 65.41 65.57 65.64 66.13 66.04 66.30 65.79 65.12 66.01 66.02 66.53 65.80 67.65 67.93 69.04 68.71 67.65 63.96 58.09 59.92 59.33 60.01 61.01 61.60 61.49 60.75 60.61 60.41 59.37 59.11 58.99 58.19 58.01 58.13 59.34 59.90 60.52 61.29 62.41
64.88 64.23 64.47 64.53 64.36 64.67 66.30 66.56 66.02 65.13 64.24 65.44 65.54 65.22 65.75 66.86 67.96 67.72 67.70 66.88 65.53 63.29 57.50 58.77 59.83 60.97 59.97 59.63 60.07 60.14 61.16 61.26 60.53 59.02 58.76 57.42 57.11 57.54 58.44 59.67 60.43 60.87 59.94
64.51 64.27 64.23 64.23 63.98 65.22 65.68 65.48 63.98 64.14 64.24 64.46 65.48 65.32 65.15 65.83 66.51 67.04 65.65 64.90 64.17 62.29 59.01 57.00 59.09 59.71 59.74 60.13 60.15 61.21 61.78 62.61 61.65 59.99 58.27 57.16 56.70 56.88 57.49 57.33 56.48 55.19 54.62
64.08 64.20 64.42 63.86 64.22 64.89 65.24 64.45 63.61 64.05 64.14 64.93 65.28 65.58 65.46 66.08 65.78 65.75 64.57 63.51 63.29 61.69 60.19 58.44 58.51 59.83 59.65 59.83 60.68 61.19 61.67 62.06 62.87 59.49 56.56 55.76 55.64 55.74 55.01 54.23 53.29 52.07 50.85
63.79 65.26 64.72 64.65 64.65 64.70 64.87 64.82 62.88 64.39 64.31 64.51 65.12 66.24 65.71 66.13 65.70 65.22 63.91 62.75 61.13 60.22 59.69 59.31 58.75 58.97 59.71 60.58 60.44 59.15 58.50 60.04 60.07 60.56 58.80 57.94 56.78 54.19 53.50 52.89 51.95 50.49 48.25
64.78 65.16 64.36 64.60 65.13 65.07 64.31 65.36 65.16 65.15 63.08 63.40 65.10 64.93 64.66 61.66 60.70 63.11 63.25 63.10 61.12 60.31 59.38 58.61 58.23 58.39 58.45 58.79 57.71 58.32 57.13 58.68 59.63 60.31 58.86 58.97 57.84 55.85 52.81 51.71 51.16 49.75 48.09
64.58 65.52 64.71 64.16 64.59 63.93 50.54 54.03 60.10 65.24 64.29 64.24 63.21 62.28 62.62 61.63 56.98 54.91 57.14 58.11 60.18 59.94 58.90 58.38 58.18 57.44 57.79 58.86 59.45 56.63 56.48 56.42 55.62 61.80 59.77 58.52 58.96 55.59 53.96 53.25 48.32 47.77 47.05
66.76 65.37 64.79 64.96 64.75 63.50 49.65 49.49 53.04 65.74 66.00 65.69 64.89 64.43 62.69 61.67 61.02 61.90 54.04 53.83 54.76 54.22 56.84 59.74 58.23 58.24 58.16 60.88 60.03 58.39 60.00 59.95 58.96 62.52 61.97 56.92 58.52 55.12 53.19 49.96 47.07 46.42 45.58
65.75 65.47 65.47 65.27 64.64 61.50 49.31 49.13 52.03 66.22 66.36 65.66 65.75 65.22 63.85 63.91 62.82 63.05 62.71 62.75 61.68 60.96 60.26 60.48 59.60 60.04 60.71 61.12 63.29 62.98 63.05 64.12 62.61 61.92 62.76 55.18 57.78 53.43 53.00 50.63 46.59 45.58 44.55
66.56 65.86 65.52 65.19 64.66 62.38 48.40 47.31 55.93 65.42 64.61 65.18 65.31 65.33 65.00 64.22 51.27 51.87 63.72 61.17 59.45 57.69 54.09 53.58 54.98 53.53 52.27 53.68 59.97 63.58 61.87 60.57 57.94 58.89 61.90 57.83 57.22 53.95 51.77 49.44 47.94 45.20 44.47
65.92 65.67 65.25 65.77 59.50 63.40 47.84 46.05 55.07 64.82 64.73 64.11 65.60 64.62 52.04 59.97 48.95 50.74 63.92 61.55 59.06 59.17 60.30 59.83 61.57 54.98 57.73 59.82 53.04 67.07 64.15 60.52 59.49 58.78 62.84 58.89 57.81 55.22 51.74 52.57 49.61 47.86 47.32

GFSMA_sfc_wetblb_015.txt.gz
Wetbulb
64.59 64.32 63.91 64.39 64.34 64.19 63.94 64.01 63.14 63.90 64.52 63.44 62.83 63.06 63.55 64.27 65.52 64.46 65.06 70.02 69.68 69.74 69.90 69.77 69.58 69.76 69.57 71.10 71.78 71.67 71.36 71.66 70.89 71.33 70.39 70.69 70.69 69.87 70.08 69.87 70.39 70.09 70.21
64.31 64.92 65.45 65.07 63.90 64.58 63.90 63.50 63.34 63.28 62.15 62.22 62.99 63.27 62.97 63.14 63.86 63.62 66.07 66.70 69.14 68.97 69.58 69.35 69.45 69.68 69.60 70.30 71.58 71.85 71.41 70.89 71.24 70.86 70.34 69.79 70.20 69.69 70.13 69.60 69.80 69.47 69.43
65.08 65.69 64.65 64.01 64.77 64.52 63.88 63.33 63.24 63.10 62.42 62.34 63.66 62.48 62.65 64.11 63.70 63.60 64.81 64.17 65.54 68.76 68.94 68.82 69.88 69.61 69.95 69.76 71.27 71.70 71.84 71.11 71.01 70.68 70.39 69.57 69.12 69.33 69.66 69.55 69.50 69.17 68.06
66.18 65.51 64.30 63.77 65.26 64.98 64.49 63.07 62.14 62.03 61.58 61.13 61.36 61.68 61.62 61.71 63.47 63.49 63.14 63.60 63.35 64.28 67.68 68.59 69.26 69.90 69.98 69.73 70.58 71.57 72.15 71.22 70.59 70.41 69.82 69.62 69.46 69.13 69.28 69.26 69.38 68.03 66.84
67.42 65.04 64.32 63.59 65.15 64.48 63.82 63.19 62.89 61.93 60.71 60.81 60.96 61.03 60.95 61.42 62.14 62.86 62.13 63.15 62.01 63.33 64.18 67.69 68.25 69.41 70.18 70.43 71.10 71.40 71.81 71.81 70.69 70.24 69.81 69.33 69.48 69.24 69.04 69.11 68.03 66.87 65.88
67.06 65.62 64.80 64.22 64.56 63.56 63.21 62.57 61.50 61.57 60.83 60.49 62.13 62.11 61.12 61.42 62.57 61.86 62.80 62.90 61.64 62.88 64.25 64.14 64.66 66.45 69.64 70.75 71.17 71.15 71.67 72.21 71.09 70.57 69.56 68.33 68.80 69.13 68.84 67.70 67.01 66.12 65.47
66.31 64.94 64.08 64.17 63.80 62.40 61.77 61.40 60.86 60.21 59.07 59.85 57.80 57.64 58.96 60.52 60.50 60.46 60.67 61.17 62.62 62.10 62.18 63.84 64.40 64.93 65.71 69.93 69.85 70.46 71.76 71.76 71.43 70.46 69.08 67.87 68.51 68.51 67.52 66.67 66.75 66.06 65.26
64.83 65.11 63.93 63.88 62.34 61.55 61.22 60.46 59.98 58.44 58.40 58.67 56.06 57.32 55.20 56.54 58.62 60.35 60.10 60.56 60.20 60.83 62.23 64.21 64.14 64.12 63.84 65.14 66.25 69.37 71.09 71.80 71.16 70.15 68.70 67.79 68.02 67.69 66.43 66.48 66.37 65.88 65.09
64.79 64.03 63.06 62.65 62.00 61.62 60.11 59.61 59.75 58.49 55.80 57.40 57.82 55.74 54.42 52.61 53.92 57.08 59.40 61.04 59.53 61.18 61.56 62.28 64.52 65.49 65.63 65.03 66.09 67.59 69.74 70.36 70.67 69.91 68.28 67.68 67.50 66.78 66.11 66.36 66.04 65.06 64.04
64.17 63.67 63.09 62.40 61.68 60.70 59.84 59.75 60.67 58.56 57.50 55.50 57.24 59.66 58.79 58.39 53.34 51.69 56.56 58.46 60.35 59.66 60.51 61.30 61.81 64.27 64.45 63.63 67.71 67.50 66.36 68.12 69.81 69.04 68.22 67.80 66.68 66.14 66.87 66.14 65.14 64.69 63.75
62.97 63.25 62.70 62.03 61.07 60.75 60.04 59.99 59.37 58.91 58.40 56.86 56.28 56.34 57.36 58.49 58.26 55.70 51.21 54.59 58.45 61.37 60.81 61.05 61.12 62.56 65.69 64.75 65.35 66.69 65.70 66.92 66.99 66.65 67.09 67.02 67.10 66.62 65.96 64.64 61.67 63.59 63.66
61.45 61.52 62.16 61.25 60.80 60.47 60.48 60.45 59.65 59.17 59.76 58.72 57.52 57.22 55.90 55.29 56.46 55.17 52.69 53.28 55.07 56.96 59.31 60.80 60.59 61.68 64.46 66.09 67.19 66.24 65.05 64.59 63.71 64.27 64.85 65.21 65.60 65.22 63.22 63.01 63.27 63.48 63.91
60.00 59.95 60.25 60.15 60.36 61.36 61.94 61.52 59.73 59.05 59.11 59.18 58.27 57.62 58.08 57.56 57.00 57.90 55.06 53.83 54.56 56.90 60.32 61.79 62.21 63.62 66.30 66.32 66.03 65.91 64.68 62.83 62.02 61.99 62.06 61.64 61.86 62.88 63.93 62.87 62.91 63.94 64.46
59.69 59.91 60.16 60.54 61.69 62.22 62.23 61.80 60.99 60.29 60.03 59.51 58.93 58.33 58.46 58.44 59.44 58.64 57.06 55.58 54.18 57.61 58.89 58.87 61.23 64.01 66.03 65.49 65.03 63.95 62.44 61.13 59.84 58.77 58.88 59.67 60.95 61.47 61.30 63.52 64.05 64.02 64.15
60.46 59.96 60.64 60.74 61.46 61.96 62.09 60.74 59.79 59.56 60.33 59.71 59.35 59.42 58.91 59.49 59.72 59.81 59.10 58.37 58.38 55.52 55.66 58.15 58.53 61.75 64.46 64.52 63.94 62.37 60.54 59.99 59.57 58.08 58.23 58.88 59.79 60.44 61.25 61.44 61.54 61.83 62.20
61.33 60.45 60.05 60.69 61.24 62.47 62.02 60.96 59.73 61.02 60.35 60.07 61.15 60.80 59.97 60.18 59.91 61.20 60.52 59.91 60.32 57.42 54.84 58.17 58.91 60.32 62.45 63.13 63.15 61.21 60.47 60.36 58.96 58.26 58.78 58.85 58.74 58.76 58.93 59.19 59.06 59.61 59.99
59.29 59.65 60.26 61.40 61.95 61.83 61.65 60.96 60.47 60.68 60.44 60.55 60.41 60.37 61.04 60.37 60.16 60.34 60.44 60.32 58.93 57.90 55.96 57.28 59.19 59.63 59.79 60.48 60.14 60.16 59.60 59.71 59.17 58.88 58.63 57.42 56.80 56.64 56.48 56.67 57.79 58.28 58.32
59.42 59.59 60.50 61.88 63.18 62.74 60.81 60.98 60.44 60.31 60.51 60.28 60.62 60.91 60.90 62.44 60.19 61.14 60.63 58.77 59.09 58.99 57.09 55.20 57.30 57.85 58.33 59.92 60.15 59.78 59.45 59.15 59.44 57.80 55.76 54.77 54.87 55.17 55.41 54.79 54.99 55.51 55.05
58.76 60.99 61.96 62.99 62.84 62.09 61.48 60.75 61.23 61.28 60.86 60.15 60.64 60.75 60.65 61.19 60.54 60.23 59.64 58.99 58.91 58.29 57.84 56.48 56.08 58.39 58.99 59.77 59.43 59.95 59.05 58.23 59.12 57.98 55.60 54.64 54.03 54.97 54.53 54.03 53.20 52.60 51.37
58.49 61.42 61.57 63.16 62.56 62.76 62.63 61.58 62.83 61.45 60.93 60.90 61.40 61.88 61.87 61.86 60.81 59.64 59.30 58.76 58.03 57.38 57.27 56.62 56.78 57.47 57.98 59.09 59.10 57.72 56.92 57.68 57.08 58.03 57.39 56.02 55.05 53.85 52.90 52.53 52.57 51.67 49.20
60.91 61.99 61.78 62.59 60.35 59.66 60.75 61.81 62.00 61.47 60.72 60.59 61.10 61.02 61.90 60.95 59.40 59.24 59.54 59.03 58.58 57.75 57.26 56.52 56.72 57.02 57.06 56.90 56.40 57.80 55.98 57.50 57.89 57.43 55.08 53.82 51.57 50.24 50.46 51.38 52.77 50.99 47.99
61.48 60.96 61.42 60.22 58.21 58.70 50.24 52.81 59.49 61.63 61.72 60.79 61.10 60.32 60.07 58.43 55.76 54.43 54.84 55.70 57.90 58.09 56.86 56.78 57.14 56.62 56.92 57.26 58.12 57.04 56.66 55.68 53.63 57.05 54.34 50.59 49.28 46.24 46.58 45.49 48.16 47.22 46.25
61.28 60.98 60.79 58.59 56.57 54.97 47.38 48.85 52.09 62.48 61.34 60.79 59.33 61.17 60.58 59.03 58.39 58.16 53.49 53.48 53.35 52.92 55.95 58.80 57.11 57.27 56.75 57.40 57.30 55.70 55.11 53.13 52.83 54.81 51.98 47.41 47.10 44.86 45.67 47.05 46.52 45.76 45.01
60.14 60.45 60.18 58.13 55.86 53.78 47.38 46.67 52.29 61.98 62.39 61.55 60.97 60.79 60.44 59.49 59.28 59.82 59.46 59.13 58.97 59.14 59.18 59.57 58.86 58.32 57.98 57.20 56.85 55.29 54.16 52.72 53.79 53.20 50.11 45.60 44.74 43.60 44.39 43.96 46.01 45.20 43.87
59.92 59.34 60.12 57.77 56.08 53.96 47.92 46.13 57.82 61.84 61.84 61.25 61.57 62.03 61.36 59.71 50.22 51.02 59.37 58.57 58.20 57.73 52.54 50.63 50.00 49.87 48.15 49.82 53.70 56.71 54.53 52.24 52.32 50.88 50.99 46.07 44.75 43.37 42.51 41.45 42.83 45.02 43.67
61.05 60.67 60.79 58.59 55.08 55.36 47.58 45.94 55.32 61.83 60.03 59.29 59.07 59.05 52.75 56.88 48.12 50.13 59.11 58.48 57.50 57.68 58.31 58.43 58.20 53.18 52.55 50.76 51.91 57.07 56.77 54.36 53.24 49.44 52.71 47.92 44.87 43.98 40.72 42.47 40.86 41.29 40.51

GFSMA_sfc_wetblb_021.txt.gz
Wetbulb
64.58 62.54 62.37 62.64 63.22 63.55 63.63 62.30 61.02 60.92 61.16 61.73 62.48 63.00 62.99 62.99 64.66 63.97 63.50 67.48 68.46 69.05 69.01 69.60 70.36 69.71 69.28 70.11 71.39 72.08 71.71 71.40 70.92 71.01 70.39 70.44 69.93 69.82 70.05 70.21 69.90 69.67 69.52
63.74 62.78 62.17 62.59 62.12 62.16 62.28 61.94 61.31 60.89 61.31 61.61 61.82 62.24 61.98 61.79 63.17 63.61 63.56 63.23 67.48 68.99 70.14 71.28 70.04 69.00 68.92 69.31 70.34 71.19 71.97 70.56 71.20 70.24 70.32 69.99 69.86 69.97 70.07 69.51 69.73 69.45 69.75
63.83 63.30 63.17 62.79 62.28 62.50 62.02 61.31 61.42 61.15 60.61 60.80 61.04 61.45 61.17 61.40 61.50 61.79 61.85 63.77 64.02 69.00 68.95 69.21 69.45 69.51 69.01 69.37 69.27 70.40 71.43 71.44 70.89 70.43 70.11 69.99 69.61 69.67 69.18 69.04 69.24 69.23 69.03
64.82 63.86 64.13 63.43 63.56 62.36 61.80 61.08 60.84 60.68 62.00 59.75 59.27 59.75 60.35 60.81 61.23 61.61 61.77 62.18 63.29 64.86 67.82 69.21 69.62 69.81 69.43 68.74 69.67 69.81 71.12 71.41 70.71 70.15 69.70 69.49 69.51 68.65 68.26 68.64 69.21 69.31 68.29
65.04 64.39 63.46 63.00 62.86 62.23 61.46 61.22 60.36 59.65 58.55 58.49 59.65 59.45 59.37 59.69 60.01 61.18 61.22 61.08 62.21 63.95 62.53 66.89 68.38 68.11 68.74 69.53 69.38 69.72 70.23 71.21 70.67 70.26 69.67 69.56 69.67 68.16 67.94 68.75 69.08 68.72 67.43
65.49 63.96 63.91 62.88 62.33 61.93 61.39 60.68 60.72 59.48 59.50 58.23 59.66 59.96 58.91 59.23 59.73 59.59 60.10 61.00 61.28 62.39 62.14 61.80 62.76 64.86 67.69 68.70 69.54 69.44 69.67 70.67 70.61 70.60 69.20 69.29 69.00 68.58 68.17 68.19 68.62 68.04 66.99
65.44 65.17 63.14 62.18 62.06 61.98 61.51 60.75 59.61 58.71 58.82 60.22 58.25 55.46 56.28 57.93 58.81 59.87 60.03 59.80 60.41 61.09 61.28 61.47 61.50 62.86 63.45 68.07 69.23 69.75 69.27 70.21 70.78 70.52 69.84 67.51 68.49 68.82 68.92 68.85 68.32 67.51 65.52
65.70 63.95 62.72 61.91 61.83 60.96 60.25 59.23 58.47 56.83 57.39 58.05 54.52 53.28 51.64 54.14 57.48 59.44 60.09 59.57 59.48 60.51 60.74 61.74 61.96 61.96 62.01 62.31 65.66 69.51 69.72 69.57 70.19 70.18 69.31 68.42 68.64 68.74 68.92 68.84 67.57 66.35 66.36
64.51 63.68 62.81 62.05 61.20 60.50 59.29 58.23 57.63 57.09 55.92 54.94 55.19 53.67 50.00 49.05 54.02 57.67 59.39 60.21 59.28 57.88 58.96 59.47 61.15 62.22 62.76 62.32 64.97 67.32 69.55 68.81 69.67 70.08 69.44 68.02 68.51 68.65 68.78 67.74 65.39 65.70 65.10
63.64 63.35 62.44 61.52 60.83 59.63 58.47 57.95 58.57 57.19 55.90 54.28 54.46 56.14 54.37 53.90 52.15 51.67 56.58 58.74 59.72 57.87 57.71 59.45 60.04 61.54 62.58 61.97 64.62 65.83 66.90 67.24 69.11 69.74 69.25 68.63 68.55 68.11 66.28 64.01 63.36 62.35 64.15
62.65 62.69 62.60 61.75 59.64 58.75 58.30 58.28 58.13 57.05 56.66 55.48 54.14 53.48 53.66 54.28 55.76 54.16 52.34 54.14 57.75 57.05 57.16 58.16 59.06 59.80 61.74 61.92 61.89 63.61 64.97 65.42 66.38 67.22 68.67 68.69 67.86 66.65 64.75 63.63 64.22 64.41 63.05
60.88 62.51 61.26 59.97 59.12 58.34 58.62 58.70 58.22 57.60 57.03 55.84 54.78 54.28 54.18 53.20 54.36 55.36 53.53 51.70 53.35 55.32 58.83 58.29 57.73 58.63 60.22 61.25 63.61 65.05 64.02 63.82 63.91 65.11 66.22 66.86 66.71 65.84 64.49 64.44 63.58 63.88 64.17
58.38 58.06 59.01 58.20 57.80 58.69 58.71 58.74 58.40 57.60 56.85 56.40 55.98 54.88 55.06 54.61 56.44 57.18 54.00 51.44 51.94 57.25 57.73 60.01 60.87 59.97 60.29 61.62 63.13 65.06 64.93 62.78 62.64 63.07 64.02 64.48 64.53 64.37 63.56 63.89 63.92 64.11 64.21
58.20 58.19 58.36 58.43 58.86 59.29 59.84 59.40 58.97 58.57 57.44 57.39 56.52 55.68 55.32 55.72 56.77 57.22 56.27 53.26 54.29 56.56 56.42 55.07 59.56 62.11 61.88 63.68 63.98 65.24 63.80 62.38 61.54 61.20 61.52 61.06 60.97 61.20 62.72 62.76 63.55 63.53 63.19
58.52 58.12 58.48 58.30 58.71 59.75 59.80 59.33 58.99 58.34 58.35 57.50 57.68 56.21 55.22 55.76 57.49 57.41 55.92 55.47 54.48 52.61 51.98 57.79 58.67 62.27 63.73 63.80 65.39 64.26 63.63 61.92 61.87 60.58 60.53 59.57 59.89 60.52 60.53 60.55 61.41 61.59 61.83
57.87 58.45 57.91 57.99 58.81 59.80 60.32 59.11 58.62 57.70 57.74 57.69 58.49 58.29 56.36 56.30 56.36 56.95 56.58 56.08 55.60 53.86 53.93 58.23 58.84 60.99 63.34 63.34 64.69 63.27 62.54 61.33 60.02 59.41 59.61 59.24 58.34 58.15 58.55 59.22 59.80 60.32 60.81
57.47 58.23 58.63 58.06 58.93 59.07 59.87 58.41 58.66 58.21 58.91 57.80 58.38 59.06 58.56 58.09 57.21 57.29 57.45 56.24 55.62 55.00 54.66 57.27 59.20 61.85 60.64 59.47 59.15 60.20 60.97 60.21 59.63 59.03 59.11 57.80 56.46 56.38 57.14 57.74 57.92 58.38 59.02
57.87 58.42 58.48 58.45 59.74 59.92 59.62 59.04 59.56 59.95 58.91 59.04 58.35 58.88 59.01 59.41 56.91 56.62 56.20 56.56 56.38 55.94 56.07 56.26 57.77 58.27 57.31 57.59 57.85 57.93 58.75 59.07 58.87 58.40 57.08 56.12 55.45 55.40 55.62 55.28 55.25 55.15 55.11
56.80 56.94 57.73 59.95 60.28 59.93 59.56 60.47 60.35 59.33 58.60 58.60 58.49 58.93 59.60 58.23 58.13 59.26 59.10 57.61 56.99 57.96 58.34 57.14 56.04 57.37 56.42 56.54 56.42 57.31 56.73 56.46 57.88 58.62 56.65 55.66 54.74 54.50 54.72 54.16 53.36 52.93 51.72
56.86 57.23 60.83 60.95 60.76 60.63 61.15 62.17 61.43 60.43 58.42 58.67 59.30 60.28 59.75 59.86 58.94 58.75 58.11 57.96 57.77 57.48 57.45 56.25 55.20 55.24 55.76 55.90 55.43 53.96 53.91 56.24 56.14 58.05 57.17 55.48 54.99 54.39 54.07 53.49 53.65 52.56 49.84
57.05 61.16 60.77 58.92 58.47 58.55 57.57 59.85 59.72 59.24 58.57 58.69 59.96 60.26 59.70 59.94 58.94 57.62 57.55 57.80 57.64 57.31 57.16 55.14 54.50 54.50 54.88 54.92 54.12 55.10 54.18 54.82 55.32 55.90 55.10 54.79 54.01 52.99 52.78 53.69 54.86 52.27 49.15
59.54 61.24 59.27 57.80 56.60 57.06 48.41 49.31 57.69 59.97 60.86 59.86 59.17 59.44 58.91 56.96 55.27 53.85 54.41 54.74 56.77 57.26 56.74 55.89 54.66 54.12 54.45 55.18 55.44 54.71 54.16 53.68 51.52 55.74 53.19 49.89 52.43 49.06 49.03 49.63 49.81 48.20 47.20
59.57 59.89 56.80 56.04 55.01 54.83 46.05 49.69 52.41 60.16 59.76 59.83 59.72 59.13 58.81 57.62 56.70 56.12 52.30 52.29 51.88 52.29 55.19 56.87 55.21 55.15 54.91 55.62 55.55 54.65 54.41 53.62 53.09 52.79 51.81 46.97 47.02 45.13 45.46 47.15 47.12 46.06 45.30
59.80 57.89 55.07 54.58 54.56 54.52 45.33 49.51 52.96 58.77 60.20 59.91 59.69 59.26 58.36 57.99 57.37 57.88 57.60 57.58 57.80 57.85 58.51 58.98 58.09 57.30 56.76 57.04 56.34 55.69 54.12 53.02 52.40 49.43 48.18 45.38 45.01 42.23 41.58 42.85 46.06 45.37 44.18
56.33 55.21 54.91 54.18 55.17 56.02 44.78 49.69 56.87 60.06 60.17 59.39 59.55 60.07 59.49 58.21 48.37 49.74 58.04 56.70 56.55 55.60 51.37 49.69 49.52 48.81 47.50 48.98 53.07 55.32 53.20 52.27 50.36 47.43 46.23 42.94 41.66 40.01 39.47 39.82 41.88 45.25 44.06
56.48 57.19 55.51 55.09 52.59 56.10 44.98 47.34 55.68 60.67 59.38 58.81 58.41 57.32 50.69 54.71 46.25 48.31 57.84 57.07 55.66 55.54 55.81 55.79 54.05 50.64 51.73 49.90 50.47 54.54 53.97 51.01 49.35 47.26 48.13 42.59 40.65 39.72 37.94 39.45 40.06 41.28 40.53

GFSMA_sfc_wetblb_024.txt.gz
Wetbulb
65.47 65.65 65.15 63.66 63.89 65.76 66.50 65.74 64.70 64.19 63.49 63.08 63.80 63.89 64.22 64.46 64.82 65.20 65.48 67.02 68.11 68.48 69.13 69.04 69.72 69.66 69.90 70.06 71.01 71.82 72.12 71.75 71.38 70.97 70.15 70.34 70.32 70.20 70.61 70.90 69.92 70.30 69.35
64.99 64.20 63.74 63.11 63.16 63.95 64.93 65.17 63.63 62.92 62.35 62.97 63.23 63.47 64.00 64.41 64.45 65.27 65.58 65.36 67.03 68.06 69.05 69.22 69.75 70.04 69.41 69.04 69.64 70.87 71.32 70.98 71.15 70.33 70.26 70.43 69.64 69.95 70.20 70.39 70.04 69.34 69.04
64.44 64.10 63.33 62.73 63.31 63.91 63.92 63.43 63.19 63.06 62.78 62.95 62.96 63.52 63.47 63.67 63.71 63.52 64.00 65.19 65.13 66.86 68.20 69.52 69.61 69.37 68.97 69.05 69.04 69.39 70.83 71.24 70.62 70.36 69.72 69.66 69.58 69.93 70.21 70.32 70.04 69.33 69.07
64.54 63.69 62.97 62.85 63.14 63.73 63.16 63.12 62.87 62.23 62.51 62.75 62.22 62.64 63.29 63.29 63.36 63.65 63.61 63.84 64.42 66.23 67.19 69.13 69.38 68.96 69.15 68.91 68.84 69.31 70.71 70.97 70.71 69.66 69.62 69.42 69.15 69.83 69.75 69.87 69.74 69.22 68.92
64.97 64.27 63.61 63.90 64.60 64.00 63.43 62.94 62.27 62.68 62.14 61.64 61.60 62.02 62.08 62.37 62.58 62.78 62.88 63.42 64.14 66.46 66.02 68.06 68.54 68.79 69.30 68.86 68.52 69.35 69.87 70.74 70.67 70.09 69.59 69.90 69.48 68.65 68.70 69.29 69.64 69.05 68.05
65.57 64.56 64.21 64.17 64.27 63.41 62.92 62.60 62.73 62.20 62.07 61.13 60.88 61.27 61.39 61.98 62.01 61.95 62.71 62.78 63.57 64.70 65.64 64.57 66.79 67.17 68.15 68.33 68.58 69.38 69.08 69.60 70.63 70.60 69.95 69.13 69.42 68.81 68.60 68.45 68.99 68.59 67.07
65.66 64.65 64.18 63.77 63.31 63.43 63.28 63.08 62.49 61.65 61.20 61.58 59.57 59.12 59.08 60.53 60.89 61.50 62.63 62.54 62.79 63.69 63.86 63.31 64.59 64.99 65.72 67.72 67.95 69.81 69.03 69.30 70.14 70.65 69.59 68.95 68.71 69.02 69.02 68.84 68.82 67.78 66.42
65.32 64.93 64.22 63.54 63.13 62.70 62.83 62.08 61.18 59.70 60.16 60.51 58.11 56.08 55.43 57.61 59.17 60.84 62.11 62.08 62.34 63.31 63.45 63.91 64.18 64.51 65.34 65.61 66.76 69.02 69.34 69.11 69.50 70.55 68.97 68.73 68.77 69.05 68.98 68.94 68.42 66.10 63.92
65.48 65.02 64.17 63.57 62.92 63.02 62.11 61.06 60.70 59.77 58.65 58.05 58.54 57.34 53.66 53.00 55.21 59.36 60.82 61.66 61.56 61.49 63.06 62.92 63.73 64.59 65.06 65.44 65.18 66.99 69.17 69.24 68.96 70.02 69.40 68.28 68.89 68.67 68.65 68.28 66.82 64.48 65.12
65.03 64.53 63.84 63.31 62.88 62.29 61.26 60.73 60.31 59.43 58.75 57.41 57.47 57.93 57.22 56.71 54.56 53.93 57.55 59.25 61.06 60.42 61.08 62.33 63.38 64.15 64.77 65.66 65.62 66.31 67.28 68.11 68.65 69.26 69.58 68.92 68.98 68.50 68.53 66.80 64.66 63.56 62.16
64.25 63.78 63.24 63.13 62.64 61.67 61.05 60.30 59.79 59.23 58.71 58.51 57.31 56.36 56.86 56.90 58.12 56.68 54.04 55.84 58.41 59.33 60.91 61.59 62.80 63.40 64.40 65.04 65.51 65.82 65.10 65.95 66.67 67.89 68.54 68.99 68.87 67.66 65.31 64.75 62.97 62.84 62.86
62.20 62.85 63.09 62.52 61.33 60.82 60.09 60.18 60.40 59.60 59.27 58.61 57.91 57.21 57.16 56.56 56.33 57.42 55.42 54.02 55.32 58.43 60.58 61.74 61.86 62.58 63.81 64.88 64.86 64.28 63.76 63.61 63.70 64.60 65.52 66.62 65.81 65.19 63.86 63.30 63.54 62.88 62.77
60.48 61.28 60.97 60.48 60.29 60.21 60.61 60.75 60.22 59.97 59.73 58.61 58.45 57.61 57.91 57.84 58.89 59.17 56.54 54.64 54.90 58.25 59.71 61.61 62.28 63.01 63.11 64.63 65.48 65.44 64.80 62.45 62.12 62.53 63.72 63.93 63.67 63.78 63.41 64.55 62.98 62.08 64.17
59.78 60.40 60.75 60.15 59.76 60.58 60.73 60.76 60.31 60.22 59.73 59.17 59.11 58.35 58.21 58.85 59.44 58.00 56.65 55.73 55.70 57.38 58.27 58.73 61.79 63.54 63.85 65.11 65.10 64.56 65.30 61.65 61.50 61.77 61.68 61.96 62.07 62.55 63.12 62.23 63.24 63.71 64.01
59.86 59.78 59.97 59.68 60.02 60.73 61.23 61.23 60.74 60.80 60.42 59.80 59.71 58.76 58.27 58.67 59.55 58.91 59.37 59.12 58.46 54.18 55.04 58.70 60.20 64.11 64.66 65.79 65.92 65.34 64.02 61.67 61.80 60.63 60.55 60.15 60.37 60.45 60.86 61.10 61.53 61.89 62.16
59.67 59.50 59.32 59.74 60.45 61.22 61.61 61.42 60.96 60.49 60.00 59.70 60.18 59.48 58.60 59.00 58.98 59.89 59.21 58.84 59.17 57.77 54.70 59.63 60.23 62.31 64.82 65.03 65.40 64.86 64.20 61.88 59.85 59.37 59.97 59.36 58.56 58.79 59.31 59.39 59.37 60.26 60.65
58.92 59.45 59.72 59.77 60.32 60.72 61.22 60.69 60.64 60.44 59.84 59.72 60.12 60.16 60.20 59.89 59.48 59.45 59.51 59.10 59.00 58.80 56.33 59.06 60.86 61.65 59.80 60.14 61.59 62.41 62.48 61.36 60.09 59.27 59.32 58.23 57.27 57.16 57.54 57.65 57.99 58.58 59.37
59.02 59.84 60.13 60.19 60.34 60.49 61.03 60.52 60.54 61.14 59.79 60.09 60.28 60.36 60.40 60.29 59.92 59.93 59.71 59.13 58.92 59.29 58.36 57.89 58.25 57.37 57.55 59.20 58.79 58.75 59.56 60.53 59.60 59.02 57.68 56.74 55.73 55.41 55.27 55.38 56.05 55.99 55.65
58.68 59.16 59.25 59.98 61.26 61.22 60.88 60.83 60.81 61.31 60.26 60.31 60.62 60.42 60.62 60.08 59.20 59.28 59.49 58.81 59.31 59.78 60.58 57.52 55.48 56.70 57.15 57.67 57.35 57.97 57.37 57.41 58.13 58.23 56.42 55.65 55.24 54.70 54.40 54.33 53.71 52.87 52.02
58.18 59.24 61.37 61.47 61.71 61.56 61.85 62.41 62.08 60.92 59.97 60.55 61.14 61.15 60.90 60.25 59.52 59.80 59.40 59.08 59.31 58.88 58.02 55.98 54.98 54.72 55.68 56.83 56.43 55.42 55.40 56.87 56.26 57.64 56.85 55.76 55.86 54.64 53.60 53.47 53.67 52.76 50.41
58.41 61.71 61.00 60.00 59.87 59.90 57.54 59.19 60.92 60.63 60.00 59.84 61.46 60.94 61.28 60.18 59.03 58.81 59.43 59.03 59.15 57.73 56.50 55.37 54.48 53.95 53.63 53.99 53.82 54.74 54.07 55.24 55.52 56.24 55.66 55.82 55.38 54.52 54.34 54.21 55.36 53.15 49.81
60.51 61.59 60.18 59.02 58.42 57.74 47.32 51.33 57.73 61.35 60.40 60.06 59.72 59.29 59.44 57.38 55.85 53.71 54.49 55.25 57.84 57.55 55.96 54.97 54.38 53.50 53.90 54.36 54.60 54.12 53.80 52.82 51.50 56.56 53.26 50.62 53.39 50.74 53.25 55.58 50.67 48.86 48.08
61.09 60.00 58.49 57.95 57.14 57.13 45.31 49.51 52.96 60.67 60.31 60.23 59.65 58.97 58.11 57.20 57.04 56.38 52.40 52.57 52.13 52.73 54.99 56.67 55.01 54.86 54.71 55.33 55.09 53.93 54.04 54.07 52.47 53.27 53.31 47.90 50.15 49.41 49.38 50.16 47.55 46.87 46.37
60.44 59.31 57.43 56.69 57.34 55.03 46.25 50.24 51.51 61.40 60.13 59.59 59.29 58.51 57.73 57.45 56.78 58.06 58.48 58.07 58.12 57.70 57.95 58.15 57.25 56.97 56.73 57.20 56.70 55.86 54.80 54.14 52.33 51.42 54.06 47.57 47.31 47.01 46.90 49.12 46.76 45.93 44.97
59.47 57.97 56.69 56.35 57.93 57.43 46.61 48.97 56.44 60.13 59.81 59.43 59.56 59.24 58.94 57.75 47.79 49.40 57.68 56.86 56.24 54.82 50.90 48.93 48.57 47.50 46.98 48.50 53.05 55.34 53.97 52.98 51.17 50.85 49.98 50.15 47.40 46.16 46.74 47.34 48.10 45.69 44.40
58.13 57.81 56.40 57.34 53.90 57.51 45.71 47.70 56.85 60.27 58.71 58.05 58.27 57.22 50.65 54.19 45.53 48.86 57.71 56.70 55.60 55.54 55.92 55.77 54.55 51.55 52.33 50.85 51.14 56.55 56.30 53.37 51.86 51.23 51.77 50.60 47.18 46.83 46.55 46.65 46.86 47.60 47.27

GFSMA_sfc_wetblb_030.txt.gz
Wetbulb
71.96 71.02 70.92 69.73 70.49 70.01 69.64 70.82 70.94 71.53 71.55 71.24 70.58 69.83 69.52 69.65 70.00 69.64 69.86 69.50 68.67 68.91 69.43 69.75 69.72 69.57 69.88 70.38 70.85 70.41 70.43 71.62 71.90 71.11 69.67 67.48 69.37 70.74 70.85 71.36 71.34 71.62 71.05
72.50 69.95 70.72 69.55 69.62 69.84 69.50 70.32 70.51 70.93 70.01 70.65 70.25 70.45 69.98 69.78 70.17 70.12 69.73 69.61 69.20 68.84 68.60 69.06 69.43 69.84 69.79 70.20 70.20 70.38 70.43 71.33 71.17 71.28 70.11 69.40 70.16 70.34 70.35 70.80 70.19 70.25 69.83
72.97 71.92 69.57 69.32 68.60 70.17 71.22 70.16 70.87 70.51 70.05 70.02 69.86 69.89 70.59 70.22 69.91 70.11 70.15 69.46 68.85 68.57 68.50 68.87 69.15 69.17 69.66 70.10 69.99 69.74 69.99 71.02 71.22 71.18 69.64 68.73 68.82 69.03 68.54 68.83 69.16 69.50 69.44
72.96 72.32 69.28 69.15 69.06 69.97 69.29 68.42 69.66 68.97 69.18 69.18 71.34 70.61 70.16 69.53 69.86 69.98 70.01 69.73 69.08 68.67 68.66 69.38 69.04 69.66 69.81 70.04 70.08 69.74 69.70 70.82 71.06 70.77 69.83 69.72 69.11 67.98 67.69 67.62 68.85 69.24 69.04
71.86 71.27 69.63 69.09 72.18 68.71 68.23 68.42 67.96 68.60 68.19 69.02 68.69 70.65 69.69 68.89 68.84 68.97 69.34 69.25 69.85 69.40 68.57 69.44 69.01 69.60 70.09 70.13 69.40 69.35 69.30 69.93 70.89 70.73 69.98 69.83 69.49 68.34 68.04 67.49 67.73 69.09 69.03
71.51 71.12 70.13 70.36 70.57 68.09 67.74 67.52 68.37 68.96 70.16 70.40 68.53 67.83 68.13 68.16 68.20 68.11 68.50 68.99 69.16 69.58 69.72 69.43 69.20 68.16 69.18 69.20 68.86 68.67 69.17 69.50 69.90 70.25 70.29 69.73 67.95 69.10 68.54 67.61 68.30 68.82 67.72
71.12 71.09 70.15 69.87 69.63 68.47 68.41 69.03 68.07 69.33 70.07 70.03 67.43 66.01 66.25 67.66 67.86 67.54 68.11 68.47 68.37 68.83 69.00 69.69 68.65 69.95 68.28 69.38 68.94 68.70 68.47 69.71 68.94 69.69 70.03 69.10 69.26 68.34 67.67 69.06 68.64 68.05 65.75
71.59 71.11 70.86 70.24 69.74 67.64 68.67 69.11 69.59 67.75 69.11 69.44 65.53 64.30 60.58 62.88 65.76 66.39 66.98 67.27 67.87 69.05 68.46 68.99 69.07 68.86 68.76 67.90 68.36 68.40 68.90 69.28 69.48 70.13 69.99 68.87 68.90 68.54 68.71 68.76 68.63 67.46 65.36
70.93 71.18 71.16 70.91 69.84 68.59 67.09 68.99 71.34 68.80 68.32 66.47 67.55 63.78 59.73 57.75 61.35 64.82 65.17 66.18 67.63 68.69 69.26 69.08 68.34 68.99 68.69 69.28 68.93 68.43 69.70 69.71 69.40 70.32 70.07 69.13 68.81 69.24 68.77 68.40 67.34 65.49 63.47
70.68 70.51 70.15 70.99 70.07 68.24 69.94 70.61 70.77 69.01 68.68 65.57 65.37 65.10 65.62 63.78 58.88 59.37 64.45 65.21 67.29 67.50 68.41 68.65 68.69 67.96 67.17 68.78 69.71 68.83 67.57 68.82 69.45 69.80 70.04 69.76 69.82 68.86 68.47 66.63 63.93 62.80 62.61
70.21 70.33 71.34 70.40 69.53 69.18 71.32 70.10 69.99 69.54 68.26 65.50 64.14 63.40 63.50 62.79 63.73 60.93 59.90 62.44 65.24 67.03 67.71 68.73 68.69 67.75 66.53 67.85 69.24 68.21 66.32 67.17 68.20 68.03 69.37 69.57 69.36 68.60 66.66 64.77 64.08 64.17 63.73
69.45 70.81 70.51 70.91 71.32 71.49 71.18 70.18 69.66 69.03 67.72 66.08 64.92 64.49 62.72 61.33 60.92 61.84 61.47 61.87 62.47 64.36 66.67 67.53 68.94 69.64 67.63 68.53 69.10 65.45 65.36 65.54 65.10 64.94 66.75 67.81 67.93 67.21 66.15 65.27 65.58 65.45 65.13
69.19 70.24 71.57 71.69 71.43 71.28 70.34 69.85 69.02 67.69 66.95 65.75 65.75 64.30 64.32 63.43 63.20 64.87 63.58 61.66 60.85 62.57 62.08 65.34 68.38 70.74 68.66 68.60 67.96 67.19 65.54 63.89 62.57 62.51 63.62 64.81 66.01 65.39 65.26 65.98 65.41 64.70 64.56
70.45 71.68 71.53 71.25 70.94 70.59 69.64 68.66 67.04 66.46 67.10 66.24 66.37 66.35 65.56 65.10 64.01 66.37 63.94 61.34 59.95 58.55 61.48 62.21 67.66 69.38 69.96 68.20 67.83 64.91 66.74 62.07 61.18 61.14 61.38 62.69 63.08 63.24 63.86 63.88 63.77 63.93 63.53
70.78 71.16 71.10 70.53 69.77 68.61 68.15 68.14 66.04 66.43 66.86 67.65 67.02 66.48 66.54 66.80 64.52 65.17 62.12 60.84 59.34 55.39 57.95 62.54 65.23 69.11 70.81 69.29 66.57 68.69 69.64 61.13 61.36 60.23 60.38 60.74 61.29 61.50 61.09 61.72 61.67 61.97 62.46
70.27 70.01 69.55 68.71 67.78 67.56 67.48 67.77 66.76 67.39 67.07 68.56 66.07 66.30 66.53 66.32 65.24 60.38 62.92 61.50 61.76 61.74 58.37 65.36 66.25 67.92 69.36 68.54 66.92 69.45 68.42 62.65 60.34 60.05 60.47 59.59 59.04 59.17 59.83 59.40 59.80 60.76 61.31
69.42 68.37 67.39 66.94 66.50 66.65 67.32 67.80 67.61 66.74 65.44 66.25 66.35 65.77 65.64 66.43 65.01 64.31 64.35 65.81 65.85 65.01 61.97 63.93 65.78 66.01 66.55 67.27 67.92 67.54 66.52 65.67 62.32 59.52 59.57 58.50 57.41 57.37 57.32 58.25 58.87 59.12 59.62
67.67 66.67 66.24 65.73 65.82 66.46 67.19 66.75 66.11 66.07 64.83 64.05 65.61 65.24 64.86 65.43 65.87 66.33 67.60 66.22 65.94 67.24 65.52 61.52 60.89 61.15 63.32 66.12 65.48 64.23 64.09 64.01 63.19 59.84 58.40 57.27 56.59 55.61 55.93 55.95 56.29 56.50 56.33
66.14 65.92 65.95 65.73 65.52 66.14 66.49 67.11 66.15 65.42 63.17 64.84 65.58 65.34 65.08 65.73 65.70 65.96 66.60 65.77 65.66 66.79 66.46 61.18 58.35 59.62 60.07 62.14 61.16 61.36 61.34 60.84 60.70 59.59 56.85 55.57 54.87 55.03 55.03 55.07 54.58 54.34 53.71
65.83 65.93 66.06 65.57 65.82 66.17 66.94 67.00 65.27 66.05 65.96 65.84 66.31 66.36 65.91 65.98 65.94 65.80 65.53 65.88 66.46 65.95 63.71 60.18 57.83 58.43 57.83 59.20 58.91 56.97 56.43 58.43 57.69 58.75 56.77 56.51 55.97 54.19 54.09 54.29 54.89 54.74 52.07
65.64 66.05 66.13 65.79 66.50 67.00 65.78 66.60 66.15 66.10 63.68 65.00 66.13 66.33 66.89 64.29 60.29 63.29 65.37 65.41 65.18 62.95 60.80 58.56 57.05 57.11 56.17 56.45 55.99 57.45 56.59 56.89 56.95 58.65 59.13 58.67 58.94 59.10 57.70 56.19 57.16 54.54 51.27
66.10 66.09 65.91 65.22 65.98 65.13 49.40 49.94 58.25 64.19 65.53 64.96 65.12 65.45 65.90 61.85 59.42 55.53 55.95 57.48 62.35 63.83 61.37 58.79 56.55 55.43 55.85 55.61 56.71 56.63 55.91 54.83 53.39 58.37 55.81 55.12 59.35 57.29 58.46 59.78 53.27 50.36 49.42
66.17 66.23 66.02 65.06 65.58 66.10 47.88 48.35 52.88 63.42 63.46 63.76 63.13 63.31 63.48 62.47 61.50 62.47 53.52 53.07 53.63 53.04 58.36 62.09 57.49 57.39 57.06 58.29 57.71 56.82 56.45 55.23 55.28 56.31 57.04 51.44 57.06 55.47 57.43 54.35 49.62 48.56 48.10
66.22 66.39 65.72 65.72 66.01 63.15 48.71 48.17 51.79 63.58 62.06 61.68 62.90 63.33 63.52 62.43 61.79 62.65 62.43 61.83 62.08 62.82 62.63 62.00 60.25 59.02 58.61 58.60 60.09 57.44 57.66 55.57 56.32 56.45 56.93 50.59 56.17 58.07 59.28 59.03 48.77 48.13 47.37
65.53 66.10 65.77 65.69 65.95 64.03 48.17 48.35 57.27 61.77 60.48 59.57 60.11 61.87 62.89 61.80 49.82 50.29 62.43 60.13 59.00 57.66 51.47 51.45 50.65 48.27 47.04 48.78 54.66 58.30 55.06 54.01 53.06 54.42 57.92 53.90 53.57 56.38 59.20 58.96 57.57 48.00 46.82
65.27 65.20 65.37 66.20 58.13 63.60 46.88 48.89 56.95 61.60 60.15 59.55 60.36 60.38 51.72 56.15 44.91 48.82 61.49 59.63 56.80 57.20 56.91 55.20 54.14 50.95 53.27 51.80 50.99 57.18 56.10 53.80 54.86 54.67 60.05 57.05 57.42 58.29 57.05 60.44 60.51 56.64 54.99

GFSMA_sfc_wetblb_033.txt.gz
Wetbulb
71.63 70.82 71.92 70.63 71.25 70.07 69.73 71.33 71.57 72.03 72.31 71.29 70.44 69.92 69.85 69.78 70.00 69.32 69.90 70.58 69.62 69.21 69.52 69.81 69.62 69.71 70.01 70.30 70.63 70.77 70.92 71.02 71.93 70.87 70.18 69.86 68.38 70.14 69.30 68.27 68.31 69.30 69.88
72.54 71.81 72.29 71.34 71.26 70.91 70.72 70.72 71.40 71.59 71.01 71.32 70.58 70.32 70.18 70.04 70.18 71.78 68.65 69.49 70.22 69.86 69.62 69.56 69.81 69.98 70.09 70.48 70.30 70.75 70.83 70.60 71.70 71.85 70.96 69.78 69.41 70.05 69.70 69.80 69.27 69.46 69.68
73.87 73.28 72.28 71.09 71.09 71.82 73.27 72.57 73.16 71.75 70.78 70.70 70.92 70.85 70.45 71.03 69.61 70.83 69.52 69.66 69.28 69.75 70.00 69.87 69.51 69.82 69.97 69.97 70.48 70.30 70.97 70.53 71.56 71.71 71.01 69.72 70.13 70.31 69.60 69.08 69.44 69.19 69.55
75.13 74.54 71.37 71.54 72.18 71.51 71.11 69.58 69.58 68.60 70.21 69.47 70.15 69.52 69.93 69.93 69.97 70.06 68.13 69.44 69.69 68.50 69.38 69.77 69.38 69.69 69.74 70.52 70.33 70.30 70.46 70.57 71.21 71.26 70.78 70.11 69.51 69.54 69.74 69.54 69.04 68.78 69.38
74.67 74.10 72.45 72.19 73.77 71.08 70.42 69.35 69.53 69.96 68.83 68.73 68.45 69.31 70.58 69.55 69.15 68.17 69.60 69.05 69.73 69.82 67.63 68.62 69.38 69.50 70.11 70.79 70.20 70.43 70.00 70.42 71.09 71.09 70.77 70.35 70.00 69.29 68.91 68.83 68.63 68.38 68.61
73.85 74.49 72.79 72.86 72.88 70.44 69.65 69.28 70.04 69.28 69.22 68.36 67.99 70.19 69.46 69.76 69.14 67.87 68.81 68.05 67.49 69.61 70.26 68.41 67.36 68.10 70.11 70.43 70.27 70.47 69.93 69.50 70.41 70.76 70.59 69.91 69.68 69.03 68.44 68.37 68.08 68.90 68.62
74.29 74.11 72.14 72.83 72.45 70.45 70.46 71.19 70.03 70.29 68.11 69.99 67.56 68.22 68.24 69.74 69.37 67.90 68.26 67.53 68.76 68.42 69.13 69.36 67.99 69.06 67.94 69.43 69.43 69.52 69.30 69.47 69.62 70.00 70.47 69.29 68.82 69.69 68.64 67.62 68.70 68.21 65.96
73.69 73.29 72.89 72.50 72.23 69.99 72.04 71.68 70.57 67.10 67.40 70.11 66.66 65.77 61.50 63.02 66.43 66.95 66.93 69.40 68.16 69.47 67.99 68.28 68.95 70.13 69.98 67.33 68.16 69.43 69.62 69.82 69.15 69.74 70.41 69.24 68.29 69.27 69.06 69.01 68.54 66.45 65.69
72.78 73.12 72.28 73.09 73.22 71.28 68.69 71.11 69.66 69.41 66.97 68.81 69.08 64.89 59.98 59.04 63.39 65.68 66.55 66.10 67.73 68.24 68.84 69.55 68.78 69.23 67.34 65.09 67.97 68.20 69.25 70.11 68.16 66.26 70.14 69.25 68.93 68.42 68.32 69.03 67.78 67.08 65.44
71.35 72.00 71.62 71.51 71.91 70.51 71.08 69.73 70.27 70.37 70.24 67.09 66.95 66.69 67.09 64.72 60.03 58.98 65.27 66.39 68.54 67.73 68.87 69.32 69.41 68.72 68.25 65.89 67.94 68.77 68.19 69.44 69.94 69.90 70.44 69.83 69.17 68.84 68.68 68.72 67.54 65.50 64.18
72.13 70.88 71.43 71.28 71.06 70.52 71.46 71.27 72.18 71.64 69.51 67.18 65.56 65.09 65.20 63.71 64.11 60.56 58.94 62.87 66.20 68.09 69.03 69.19 68.94 69.25 68.87 69.64 70.68 66.97 66.56 67.79 68.34 68.55 69.73 69.54 68.90 68.89 68.58 67.42 66.19 64.61 63.99
70.36 70.41 70.61 70.98 71.84 71.24 73.22 71.70 72.35 70.64 69.53 68.97 66.05 66.18 63.61 61.88 61.46 61.48 60.10 62.72 63.26 65.42 67.15 64.89 69.20 69.13 67.39 68.01 67.38 65.32 65.18 65.80 65.76 65.56 67.10 67.36 68.31 68.58 67.77 66.07 65.00 64.90 64.95
68.90 69.84 71.77 71.98 71.03 73.11 72.04 71.77 70.85 70.10 68.88 67.38 67.04 64.83 64.70 64.80 63.53 65.10 62.90 62.78 62.30 65.18 64.86 66.00 68.68 69.07 67.39 67.26 66.58 66.70 65.91 64.50 63.28 62.82 63.93 64.94 66.47 65.94 65.52 65.47 65.61 65.72 65.60
70.73 72.41 72.26 72.79 71.93 71.28 70.59 70.87 69.12 68.14 68.85 66.69 67.19 67.01 66.02 65.06 65.36 67.12 63.26 63.09 60.14 61.88 62.87 63.97 68.13 68.03 65.73 65.81 67.56 67.15 66.52 63.04 61.61 60.95 61.47 62.88 63.80 63.74 64.12 64.41 64.87 65.05 64.32
71.88 71.84 71.98 71.38 70.83 70.29 70.20 70.22 67.62 67.16 68.40 68.36 67.46 67.11 67.43 65.38 66.92 65.65 65.10 63.33 62.40 57.65 59.46 62.87 64.12 66.75 69.78 69.10 66.88 68.12 67.43 61.49 61.54 60.31 60.53 61.19 61.42 61.81 62.05 62.06 62.34 62.65 62.23
72.60 71.49 70.73 70.62 70.01 69.48 68.93 68.59 67.90 67.52 67.34 69.05 67.82 66.86 67.20 65.95 66.55 65.69 63.50 62.79 62.74 62.98 59.22 62.77 62.46 67.55 68.94 70.00 65.77 69.17 68.02 62.87 60.21 60.21 60.56 60.04 59.29 59.26 59.62 60.23 60.22 61.11 61.36
70.54 69.71 69.22 68.81 68.17 67.62 67.69 67.81 67.86 67.04 66.22 66.95 67.01 66.30 66.03 66.66 65.17 64.58 64.88 65.51 63.07 63.85 61.78 61.23 65.73 68.24 67.56 68.33 68.06 67.63 66.07 66.44 62.84 59.64 59.52 58.74 57.50 57.77 58.08 58.54 59.14 59.60 60.06
69.60 68.76 68.02 67.14 66.28 66.29 67.27 67.06 66.53 66.30 65.75 65.48 65.60 66.06 65.18 65.35 66.20 67.41 66.73 66.06 64.82 66.76 62.59 61.65 63.54 63.45 66.15 67.35 65.94 65.46 64.85 64.76 63.54 59.21 58.06 57.18 56.22 56.26 56.46 56.46 56.94 56.78 56.68
67.56 66.91 66.18 65.64 65.64 66.35 66.72 67.47 66.47 66.34 66.28 65.33 65.09 65.63 65.11 65.77 66.32 67.18 65.94 66.83 66.99 67.02 66.09 63.35 59.94 61.33 63.33 63.81 62.10 62.71 62.57 61.28 60.62 59.56 57.27 56.08 55.62 54.91 55.39 55.39 55.03 54.73 54.14
66.07 66.00 66.34 65.92 65.79 65.85 66.36 66.73 66.61 65.71 65.96 64.67 66.90 66.59 65.59 65.68 66.16 66.49 66.68 66.45 66.96 66.26 64.47 60.94 59.44 59.05 59.60 60.74 60.40 58.17 57.31 58.79 58.23 58.83 57.77 56.80 56.85 55.04 54.23 54.55 55.25 55.41 52.89
66.11 65.99 65.87 66.16 66.05 67.29 65.40 66.64 66.68 65.81 65.79 65.42 66.06 65.90 67.10 65.17 61.60 63.74 67.41 67.48 66.75 65.23 61.61 58.97 58.10 57.79 57.23 58.07 57.35 58.35 56.60 56.36 56.85 57.83 57.69 60.01 59.51 59.48 58.55 56.78 57.89 55.65 52.40
66.57 66.33 65.53 65.56 66.63 64.29 49.72 51.59 60.64 65.69 64.86 64.15 65.14 65.83 66.02 62.33 59.60 54.89 55.31 57.78 63.97 64.11 61.24 58.70 58.23 56.50 57.21 57.37 57.91 56.95 56.03 55.16 53.79 58.83 57.78 57.73 59.57 59.71 60.82 60.18 54.80 51.13 50.24
66.87 66.43 66.00 65.73 66.20 64.14 49.36 50.86 55.03 64.88 65.43 64.86 65.12 65.48 65.50 64.58 62.68 64.12 54.47 54.22 54.71 54.99 59.29 62.88 58.50 57.94 56.98 58.08 57.90 56.76 56.69 56.71 55.01 56.20 57.15 54.63 58.95 57.61 56.22 53.72 50.80 49.56 49.04
66.84 66.28 66.12 66.53 66.39 61.30 49.41 49.59 53.22 64.37 63.98 64.04 64.13 64.92 65.43 64.11 63.29 62.96 63.67 63.58 63.17 63.48 63.80 62.58 61.73 60.27 60.08 59.65 59.10 58.53 57.52 56.40 57.02 57.33 57.32 53.18 56.44 55.56 56.68 58.32 50.13 49.29 48.04
66.41 66.33 66.38 66.34 65.89 62.89 48.87 51.22 58.63 62.27 60.84 61.13 63.32 63.74 63.75 62.92 51.74 51.06 62.70 61.43 60.54 58.66 51.75 49.88 49.40 48.50 47.35 49.92 55.52 58.47 55.64 54.33 53.10 54.62 57.53 55.55 56.39 56.76 57.86 59.54 56.93 49.22 47.86
65.64 65.18 65.87 66.23 58.59 63.12 48.14 49.41 57.04 61.08 59.51 59.04 60.46 60.80 48.61 58.84 47.24 49.96 60.99 59.98 57.79 57.26 57.35 57.24 56.75 54.67 54.67 52.51 51.89 59.21 56.88 54.56 53.73 53.19 57.29 57.00 57.55 57.97 56.01 60.86 59.46 56.53 54.77

GFSMA_sfc_wetblb_036.txt.gz
Wetbulb
67.26 67.45 68.46 68.39 67.59 68.25 67.71 67.50 68.37 68.89 69.45 69.52 70.02 69.15 68.60 68.57 68.82 67.97 69.15 71.33 70.57 70.22 69.37 69.23 69.57 70.08 70.28 70.47 70.99 71.13 70.90 71.45 71.71 70.52 70.42 69.95 69.20 69.88 69.94 69.54 68.36 67.79 68.64
68.76 68.62 67.81 68.49 69.48 68.56 68.56 67.62 68.58 68.69 69.71 70.35 69.93 69.97 69.37 69.05 68.97 69.37 68.71 69.45 70.31 70.41 70.67 70.23 69.96 70.01 70.05 70.36 70.10 70.89 70.22 70.12 71.36 70.93 70.38 69.43 69.52 69.64 70.18 68.85 68.39 68.09 67.62
69.83 68.59 69.06 68.32 67.90 69.99 69.21 68.02 68.17 70.33 70.58 69.97 68.92 69.74 68.70 69.49 69.18 68.97 69.80 68.38 68.58 70.32 70.45 70.39 70.62 70.19 70.23 70.41 70.88 70.69 70.64 69.92 70.74 70.71 70.25 70.01 69.93 70.00 70.03 69.34 69.34 69.03 68.97
70.64 71.07 69.45 69.28 69.80 68.58 68.95 69.40 68.01 68.06 68.00 68.13 68.37 67.66 69.27 69.17 68.95 68.64 68.57 68.66 68.39 67.21 69.02 70.16 70.29 70.74 69.95 70.06 70.18 70.89 71.08 69.75 70.20 71.01 70.69 70.12 69.72 69.95 69.74 69.93 69.30 69.25 69.13
71.97 70.66 70.86 70.63 70.44 69.67 69.13 67.67 68.06 68.42 67.03 68.30 67.35 68.61 69.14 69.14 68.91 69.48 68.24 67.52 67.51 67.93 67.59 69.12 69.72 69.92 70.25 70.22 70.27 70.28 70.64 70.21 70.38 70.91 70.88 70.27 69.86 69.54 69.04 69.14 69.15 68.97 69.02
73.40 71.84 71.37 70.70 72.55 68.91 68.25 68.65 67.08 67.33 67.33 67.63 66.75 66.96 69.27 68.63 68.47 67.87 66.97 67.19 68.07 66.19 66.99 67.58 67.43 67.41 69.09 70.20 70.84 70.67 70.45 70.20 70.55 71.14 70.87 69.98 69.33 68.75 68.68 69.13 68.80 68.89 68.77
73.49 72.65 71.19 72.07 70.19 69.87 68.17 68.80 67.97 66.85 66.88 68.02 66.39 65.68 67.58 67.63 67.64 67.30 67.01 66.94 66.83 67.18 66.74 66.78 66.70 65.12 66.36 69.05 69.84 70.42 70.60 70.14 69.61 70.93 70.35 69.33 68.93 68.68 68.86 69.15 68.92 68.59 67.42
73.41 72.87 72.16 70.64 71.01 69.79 69.00 69.25 67.47 65.80 67.20 67.60 64.46 65.03 61.75 63.29 65.56 66.69 66.75 66.64 66.38 66.40 66.81 67.18 66.18 66.20 65.81 65.60 67.17 69.74 70.20 70.58 69.95 70.52 70.20 68.80 69.08 69.04 68.96 68.76 69.08 67.13 66.07
73.68 72.80 72.02 71.23 71.23 69.65 68.34 68.59 68.47 66.40 64.50 66.75 68.10 64.72 60.15 57.65 60.48 64.53 65.51 64.88 64.84 65.92 65.62 66.25 65.84 65.74 66.50 63.23 66.50 68.29 69.42 69.41 69.52 70.00 70.06 68.91 68.95 69.09 68.73 68.85 67.96 66.84 64.97
73.13 72.59 72.00 71.13 72.01 69.70 69.19 68.47 68.44 67.33 66.51 65.81 66.84 66.68 65.02 63.55 58.38 57.37 62.22 63.11 64.17 65.16 65.32 65.38 64.88 66.40 64.19 61.47 61.79 62.97 67.11 68.58 69.03 68.14 70.00 69.65 69.24 68.99 69.09 68.50 67.40 66.84 64.97
72.41 71.34 71.65 70.89 71.62 69.56 69.32 68.10 68.23 67.36 67.42 67.31 65.48 64.58 64.20 63.04 62.55 59.01 56.34 59.45 62.93 63.73 65.76 64.87 65.20 64.90 63.85 63.21 61.62 63.50 65.78 67.21 67.98 67.40 68.71 69.38 69.55 69.17 69.04 68.24 67.37 65.67 65.13
70.63 69.97 70.86 70.09 70.13 68.98 69.68 69.06 68.33 68.74 68.45 67.32 65.57 64.75 63.01 61.06 59.88 59.65 58.71 58.71 59.32 61.94 63.61 64.16 64.38 64.58 65.36 64.86 63.61 64.25 64.94 65.92 65.59 65.74 67.10 67.75 68.61 68.54 69.02 68.63 66.74 66.03 65.54
68.92 68.82 69.10 69.86 68.84 70.02 70.83 70.83 69.78 68.46 67.65 66.21 65.69 64.43 64.85 63.25 62.75 62.04 60.48 58.62 57.90 60.72 61.90 63.46 63.78 64.27 65.38 64.37 64.17 65.27 65.56 64.45 63.35 63.19 64.23 64.94 66.23 67.14 67.41 66.79 66.31 65.86 65.54
68.83 69.47 70.03 69.59 70.10 70.30 70.77 70.10 68.89 67.86 67.41 66.71 66.05 64.91 64.70 64.04 64.59 63.08 61.20 59.60 57.02 58.35 60.41 59.69 63.98 63.70 62.76 63.92 64.94 65.01 64.75 63.19 61.70 61.47 61.79 62.55 63.92 64.87 64.60 64.61 64.72 64.79 64.89
69.41 69.19 70.93 70.43 70.83 70.12 69.45 68.77 67.70 67.20 67.17 66.55 65.99 66.19 64.59 64.83 64.88 63.91 63.32 62.12 59.03 55.23 56.28 59.25 61.17 62.96 62.43 63.41 64.36 65.25 64.52 62.01 61.65 60.37 60.55 61.03 61.73 62.10 62.09 62.31 62.73 62.89 62.97
70.79 70.47 70.44 70.14 69.60 69.15 68.51 68.80 67.81 67.22 66.90 66.63 66.12 65.12 65.03 64.54 65.08 64.15 62.87 61.37 61.53 58.89 55.92 59.71 60.30 62.66 64.37 63.32 64.79 64.90 63.51 61.95 60.03 59.94 60.79 60.10 59.82 59.72 59.94 60.34 60.58 60.86 61.37
70.64 69.81 69.54 68.93 68.60 68.25 68.39 67.65 67.28 66.16 65.61 65.63 65.50 64.11 64.87 65.25 64.18 63.97 62.52 62.68 60.86 60.66 58.38 60.20 62.20 62.75 62.86 63.56 64.39 63.25 64.75 62.30 60.99 59.91 59.94 58.88 57.85 57.90 58.52 58.68 59.11 59.60 60.10
69.89 69.16 68.80 67.79 67.40 67.08 67.64 66.96 66.03 65.65 64.81 65.00 64.72 64.26 64.35 65.42 64.19 63.67 63.42 61.68 61.37 61.71 60.05 58.93 61.14 62.13 62.21 63.79 64.49 64.16 63.34 63.05 61.00 59.39 58.31 57.44 56.56 56.62 56.54 57.00 57.46 57.23 56.90
69.31 67.59 67.38 66.63 65.70 65.79 65.64 66.89 66.36 65.62 65.00 64.67 64.46 63.66 64.21 64.21 62.99 63.16 63.70 62.27 62.40 62.86 61.74 60.63 59.54 61.03 62.39 62.48 61.72 61.70 60.30 59.89 59.87 59.52 57.34 56.64 55.86 55.70 55.76 55.78 55.76 55.23 54.23
67.19 66.69 66.76 65.62 66.01 65.38 66.29 66.02 65.86 65.06 65.12 64.08 65.10 64.05 64.04 64.19 63.46 63.69 63.29 63.33 63.11 61.91 61.64 59.64 59.22 58.83 59.78 60.38 60.03 58.37 57.08 58.79 58.03 59.43 58.49 57.34 56.14 55.22 54.90 55.21 55.49 55.39 53.42
66.52 66.07 66.19 65.03 66.10 63.14 63.69 65.50 66.64 65.46 64.39 63.28 64.24 64.60 64.19 63.57 61.34 63.11 65.19 63.81 63.11 61.84 60.08 58.09 57.74 57.36 57.48 57.69 57.46 57.93 56.04 56.34 57.35 58.29 57.81 58.40 58.04 57.88 55.98 56.02 57.43 56.02 52.75
66.43 64.37 64.63 64.73 64.93 62.14 49.33 51.89 60.80 65.20 64.46 64.05 62.82 63.86 62.03 58.64 56.66 56.34 56.96 59.32 61.86 61.10 58.92 57.94 56.86 56.30 56.92 57.63 57.59 56.56 55.96 55.30 53.40 58.95 57.72 57.75 59.40 58.39 58.94 58.65 54.49 51.89 51.01
65.40 64.48 64.18 64.63 64.02 60.51 48.99 50.62 54.75 64.88 65.23 64.13 64.08 63.67 64.01 63.33 61.94 61.41 53.66 54.97 55.56 54.85 57.88 59.87 57.21 57.38 56.86 57.82 57.76 56.64 56.83 55.73 54.86 56.98 57.08 55.33 57.90 57.08 57.60 55.09 51.45 50.16 49.40
66.07 65.74 65.38 65.02 63.07 57.93 48.99 50.98 55.15 64.22 64.79 64.43 64.53 64.03 63.91 63.73 62.77 62.61 63.05 62.53 61.98 61.21 60.87 61.33 59.79 58.77 59.14 59.09 58.95 58.43 56.89 55.92 56.67 56.92 56.88 53.31 56.26 55.28 54.38 54.60 50.84 49.70 48.46
65.14 65.52 65.68 65.39 62.63 59.90 48.81 51.89 58.49 61.87 62.36 62.40 61.15 60.49 63.27 61.78 51.08 50.77 61.72 59.58 57.96 56.04 50.86 50.07 51.24 49.53 48.26 49.68 55.07 57.58 55.50 54.52 53.56 54.41 55.77 54.92 54.81 54.44 55.27 55.40 52.06 49.53 48.28
65.70 65.41 64.69 64.87 56.96 60.55 47.90 50.26 56.96 59.38 58.56 58.49 61.03 59.17 49.84 55.53 48.99 51.35 60.91 58.94 56.40 56.82 57.18 56.91 55.02 51.32 52.94 52.05 51.51 58.19 56.95 54.34 53.71 53.06 55.67 54.28 54.81 55.24 53.28 57.30 54.95 49.99 49.32

GFSMA_sfc_wetblb_042.txt.gz
Wetbulb
64.13 63.56 63.90 62.73 63.40 64.30 65.83 64.99 64.85 66.70 66.88 66.70 66.51 66.20 66.07 66.47 66.76 65.79 65.53 72.07 71.54 71.70 72.04 71.15 70.44 70.84 71.04 70.97 71.72 71.66 71.60 71.51 71.08 70.91 70.33 70.56 69.43 69.80 70.00 70.09 69.71 69.10 68.79
64.04 63.46 62.56 62.59 62.55 64.24 65.48 64.82 63.95 64.77 65.32 65.39 65.41 65.85 66.26 66.28 65.74 64.70 66.55 69.58 71.29 71.27 71.36 71.28 70.77 70.31 70.23 70.33 70.97 71.23 71.12 71.13 71.03 70.77 70.70 70.29 69.50 69.79 69.33 69.65 69.46 67.98 67.69
64.56 63.18 62.54 62.30 62.69 63.46 64.29 64.46 62.49 63.58 63.95 65.14 65.19 65.62 65.60 66.12 65.62 64.71 65.70 67.15 68.93 70.65 70.60 70.77 71.48 71.00 70.29 70.29 70.22 70.45 71.09 70.54 70.93 70.84 70.64 70.40 69.47 69.54 69.58 69.27 69.66 68.70 67.99
65.07 64.13 63.04 62.33 63.22 63.63 64.13 64.14 62.79 62.53 63.62 64.11 64.72 64.95 65.83 65.64 65.42 65.31 65.88 65.94 66.01 66.51 69.50 70.27 70.74 70.33 70.79 70.07 70.11 70.19 71.01 69.82 69.61 69.59 69.90 70.28 69.99 69.30 69.21 70.03 69.83 69.24 68.69
65.82 65.15 64.33 63.89 62.85 64.20 63.81 64.09 63.49 62.57 62.84 63.45 63.78 64.89 64.68 64.90 65.30 65.97 64.94 65.99 66.12 65.79 65.63 68.68 69.72 69.57 69.74 69.76 69.25 69.59 70.38 70.40 69.31 69.08 69.83 69.83 70.04 69.81 69.22 68.56 69.59 69.29 68.44
67.46 65.36 65.66 64.54 63.82 63.98 64.29 63.65 63.61 62.95 61.70 63.41 64.76 65.41 64.55 64.89 65.39 65.60 64.71 66.30 65.16 65.66 64.23 64.43 66.88 67.23 68.96 69.20 68.98 69.34 70.07 70.59 70.14 69.62 69.96 69.26 69.83 69.97 69.55 68.81 69.32 69.04 68.60
68.41 66.71 66.23 65.25 64.93 63.92 63.88 64.29 63.11 62.69 61.91 62.86 61.76 60.77 62.84 64.48 64.53 64.82 65.01 64.35 64.13 64.35 64.27 65.16 64.50 64.52 64.99 68.58 68.61 69.20 69.54 69.98 69.89 69.97 69.32 68.93 69.55 70.23 69.60 69.40 68.83 68.62 68.91
69.73 68.33 66.74 66.05 65.72 65.23 63.34 63.76 63.49 60.87 62.42 62.92 60.24 61.38 59.32 59.97 60.97 63.26 63.61 63.69 62.98 63.17 64.05 64.28 64.17 63.85 64.04 64.49 65.84 68.57 69.79 69.68 69.81 70.14 69.23 68.14 69.50 69.94 69.12 69.12 68.83 68.90 69.07
69.80 69.07 67.68 66.71 66.77 66.38 64.61 63.75 63.91 62.25 60.53 61.77 62.62 61.12 57.95 55.59 56.16 59.28 60.99 61.51 60.71 61.22 61.64 63.15 63.57 63.89 63.41 63.29 65.75 67.33 68.99 69.58 70.06 69.91 69.72 68.89 69.34 69.62 69.18 68.96 68.48 68.65 68.41
69.09 69.51 68.21 67.47 67.31 66.61 65.15 64.33 64.04 63.69 63.22 61.98 63.34 63.78 62.03 59.73 57.08 54.78 58.79 60.47 59.88 60.64 60.82 61.71 62.08 63.58 63.45 61.96 63.56 65.50 66.57 67.74 69.57 69.50 69.48 69.20 69.05 69.03 68.66 68.57 68.02 68.37 67.60
68.78 69.48 68.69 67.54 66.57 65.89 65.03 64.79 64.24 64.07 63.74 63.08 62.31 62.06 62.13 61.39 60.25 57.70 55.38 54.66 58.08 59.30 60.18 60.95 61.00 62.00 61.94 61.20 61.62 63.10 65.24 65.86 66.75 67.67 68.79 69.07 68.88 68.96 67.99 68.19 68.15 67.78 67.20
66.79 68.70 68.65 67.81 67.02 66.84 65.39 64.98 65.59 65.28 63.81 64.02 63.10 62.50 61.44 60.21 58.49 57.26 52.69 53.02 54.38 56.27 59.03 59.98 60.30 61.27 61.43 61.16 61.95 63.14 63.82 63.63 63.48 63.98 65.05 66.80 68.40 68.48 68.12 67.84 67.82 67.75 67.43
64.64 66.70 67.60 67.47 67.15 67.98 67.17 65.72 65.88 64.80 64.46 63.38 63.52 62.92 61.30 60.88 59.59 57.56 55.19 53.30 53.55 54.93 56.91 58.69 59.84 60.77 62.87 62.17 62.31 63.37 63.62 62.68 61.71 61.39 62.85 63.88 66.19 66.81 67.14 67.57 67.51 67.20 66.80
66.10 66.48 66.66 66.61 66.77 66.66 66.46 66.62 65.66 65.17 64.21 62.46 61.98 61.79 61.63 60.15 58.14 57.61 55.75 54.63 52.31 52.55 54.66 55.14 59.82 60.85 62.21 62.61 61.99 63.36 62.36 62.06 61.06 60.05 60.89 62.09 63.95 64.67 65.28 65.17 65.53 65.68 65.44
66.37 65.60 65.99 66.12 66.51 67.82 67.42 66.46 64.67 64.03 63.96 61.42 60.96 60.21 59.13 59.46 58.72 58.42 57.63 56.77 54.59 50.31 51.16 56.27 57.23 60.62 62.03 62.60 62.10 63.64 62.14 61.81 61.57 59.92 60.20 60.53 61.62 62.07 62.49 62.96 62.98 63.15 63.37
66.77 65.56 65.58 65.87 67.33 67.49 66.75 65.63 63.89 64.43 63.50 60.63 60.57 59.58 59.39 59.60 59.72 59.66 59.08 57.27 56.09 53.53 51.47 56.17 57.59 60.20 60.79 61.91 63.82 63.10 62.68 61.44 60.22 59.60 60.47 60.13 59.74 59.86 60.50 60.58 61.04 61.67 62.03
65.69 65.90 65.69 66.30 66.53 65.56 64.39 63.77 63.99 63.05 61.76 60.36 60.16 60.00 59.79 60.91 59.21 59.17 57.75 56.63 56.19 55.39 53.59 55.49 57.49 59.71 60.16 61.00 60.82 61.65 61.79 61.21 60.34 59.44 60.11 59.38 58.30 58.56 59.02 59.14 59.41 59.67 59.69
65.73 66.61 66.77 66.57 66.55 65.63 64.51 63.60 61.81 61.71 60.74 60.21 60.00 60.08 60.42 62.42 60.46 58.68 57.29 56.23 55.41 56.71 55.53 54.49 57.47 59.99 60.20 60.53 60.84 60.76 61.08 61.80 61.25 59.90 58.66 57.89 57.03 56.81 56.95 57.27 57.25 57.35 56.61
66.03 66.75 66.30 65.65 65.62 65.33 63.99 62.44 61.60 61.20 60.90 60.46 60.56 60.37 60.05 61.31 60.16 58.01 56.45 56.01 55.79 58.31 58.33 58.21 58.60 60.69 60.31 60.18 58.90 59.44 59.10 59.30 60.00 60.08 57.49 56.65 55.94 55.88 56.33 56.31 55.96 54.77 54.04
66.42 65.61 65.47 65.29 64.95 63.91 62.25 61.89 61.03 60.54 60.54 61.08 61.46 61.50 61.78 61.64 59.03 58.64 57.68 56.80 57.03 57.49 58.61 59.52 59.32 58.84 58.48 58.86 58.63 57.63 56.99 58.42 58.19 59.42 58.44 57.75 56.81 55.98 55.16 55.40 55.71 55.47 52.98
64.29 62.81 62.03 61.44 61.98 62.08 61.99 62.41 61.98 60.79 59.93 59.99 61.05 61.62 62.44 62.01 59.65 58.98 59.21 57.95 57.53 56.93 59.03 58.85 57.53 57.67 57.19 57.37 56.21 57.05 56.14 56.81 57.23 57.95 57.73 58.28 58.70 58.56 56.81 56.25 58.26 56.39 52.59
61.26 60.68 59.86 59.93 59.49 58.58 48.63 54.01 58.69 59.96 60.23 59.62 58.70 59.53 59.83 59.72 58.23 55.14 56.55 56.57 58.67 58.41 57.73 56.69 56.31 57.03 56.87 56.59 57.11 56.75 56.59 56.35 53.83 59.00 57.67 56.87 59.02 57.75 57.69 58.47 53.74 51.62 50.58
60.16 59.79 59.84 58.97 56.97 55.18 47.54 49.15 53.52 59.80 59.04 58.92 58.83 59.35 61.04 60.38 57.47 58.47 52.76 53.97 53.56 52.98 56.13 56.25 56.65 57.27 57.03 57.35 57.57 56.75 56.94 55.23 55.06 57.25 58.09 55.76 57.87 57.05 57.71 55.82 50.54 49.87 49.36
61.49 60.79 58.98 56.97 55.62 54.64 47.90 49.70 53.89 60.26 59.31 58.62 59.80 61.16 60.47 59.51 58.65 59.25 58.93 57.83 57.61 57.08 56.48 57.53 57.08 57.39 57.92 58.14 58.40 58.09 56.34 56.25 57.09 56.95 57.11 54.31 55.96 54.53 56.06 53.23 49.94 49.51 48.35
60.69 58.07 56.79 56.06 56.87 56.75 47.54 49.54 56.24 58.27 57.27 56.85 59.34 60.75 60.50 58.61 47.90 49.54 57.78 55.90 54.76 54.65 51.13 51.12 51.65 49.72 48.99 50.30 54.52 57.59 55.77 55.41 53.85 53.81 55.63 55.06 54.35 53.33 54.43 54.22 53.41 49.53 48.26
59.86 59.41 57.73 56.51 53.14 56.26 46.45 47.72 54.80 58.57 57.89 56.79 56.22 56.33 51.86 54.18 45.73 48.63 57.26 56.41 55.82 55.70 56.19 55.86 54.54 50.33 51.79 52.05 50.96 57.26 56.65 54.96 53.76 52.88 55.08 54.08 53.62 53.93 51.31 52.67 54.12 53.07 52.17

GFSMA_sfc_wetblb_045.txt.gz
Wetbulb
64.07 63.68 63.94 62.76 63.16 62.94 63.78 63.84 63.82 64.77 65.85 65.83 66.01 66.31 65.78 64.63 65.38 65.64 64.49 68.61 70.24 71.80 72.03 71.98 71.30 70.58 70.92 71.71 71.85 71.15 71.44 71.53 71.34 70.99 70.07 70.02 69.84 70.14 70.23 69.88 69.25 69.26 68.37
63.63 63.10 62.36 61.90 61.35 62.73 63.50 64.00 63.57 63.53 64.50 64.70 65.00 65.64 65.38 64.63 64.97 65.40 64.96 65.43 70.57 71.32 71.17 71.53 71.58 70.50 70.26 70.55 70.40 71.21 70.22 70.78 71.21 70.68 70.39 70.58 69.68 69.75 69.63 69.69 69.70 69.28 68.56
63.33 62.80 61.54 61.53 61.78 61.95 62.34 63.15 62.03 61.96 62.04 62.88 63.10 63.94 63.97 64.61 65.16 65.18 64.24 65.45 67.70 71.07 70.59 71.00 71.09 70.71 70.70 70.38 70.14 70.39 70.76 69.61 70.80 70.74 70.28 70.35 69.79 69.37 69.34 69.32 69.48 69.02 68.40
63.75 62.21 61.82 60.91 61.58 61.79 62.38 62.94 61.77 60.89 61.50 61.77 62.19 62.98 63.81 64.46 64.83 64.71 64.44 65.14 66.40 67.28 69.20 70.06 70.41 70.06 70.16 70.22 69.88 70.09 70.60 69.66 69.49 70.37 70.40 70.23 70.03 69.40 69.36 69.11 69.18 69.30 68.47
64.75 63.75 62.57 61.97 61.17 61.86 61.99 62.40 61.46 61.33 60.34 61.06 62.15 62.76 64.37 64.10 64.70 65.46 64.49 65.09 65.75 66.63 66.24 67.88 69.49 69.50 69.92 69.91 69.66 69.79 69.70 70.36 69.62 69.01 70.17 69.85 70.02 69.54 69.51 69.42 69.66 69.18 69.20
66.06 64.16 63.92 62.47 61.65 61.95 61.84 62.07 61.87 61.49 60.43 61.61 62.93 63.38 63.37 63.96 64.59 64.35 64.41 65.10 65.75 66.61 65.93 65.42 64.99 66.70 69.16 69.33 69.69 69.68 70.25 70.16 70.08 69.35 69.23 69.34 69.79 69.72 69.58 69.35 69.24 69.20 69.50
66.72 64.67 64.40 63.50 62.54 61.97 62.41 62.49 62.14 60.82 60.25 61.28 60.66 59.82 61.16 63.02 63.40 63.94 64.05 64.16 64.60 64.51 64.21 64.56 64.05 64.00 65.26 68.64 68.31 68.94 69.00 69.26 70.04 69.91 69.05 68.55 69.19 69.52 69.29 69.28 69.04 68.62 68.83
67.60 66.35 65.13 64.58 63.41 62.78 61.44 62.82 62.17 60.06 60.61 61.41 59.54 58.86 57.34 59.53 60.75 63.11 62.59 62.92 62.70 63.28 63.73 63.94 63.38 63.51 63.35 63.47 65.01 68.13 68.99 68.86 69.55 70.27 69.28 67.93 68.74 69.60 69.92 69.56 68.50 68.85 68.78
68.55 67.76 66.42 65.51 64.20 64.15 62.59 62.50 63.03 61.54 59.49 60.74 62.07 61.11 56.10 55.68 55.58 57.61 59.76 61.16 61.06 60.77 61.60 62.34 63.02 63.33 63.28 62.89 64.96 66.49 67.91 68.27 69.63 69.99 69.72 68.31 68.83 69.46 69.49 69.33 68.60 68.76 68.59
67.28 68.43 67.67 66.14 65.29 65.05 63.92 63.22 63.99 62.92 61.81 61.39 62.75 63.29 62.32 60.48 56.83 53.72 57.62 58.63 59.65 60.37 59.52 60.05 61.11 62.36 62.83 62.01 63.99 65.86 66.22 67.22 69.65 69.76 69.93 68.97 68.76 69.26 69.48 69.00 68.49 67.97 68.55
65.27 67.83 67.57 66.36 65.63 65.89 64.62 63.74 62.77 62.94 63.98 63.31 62.99 62.14 61.93 61.17 60.59 58.32 54.51 56.34 56.90 58.06 59.10 59.60 60.00 60.51 61.94 61.19 60.83 62.57 64.70 65.62 66.76 67.13 68.52 69.22 68.85 68.92 68.91 68.39 68.27 67.76 68.02
64.84 66.40 67.25 66.51 66.31 65.93 64.52 64.55 65.24 64.75 64.04 64.02 63.33 63.09 62.01 60.72 59.50 57.91 56.48 54.09 52.96 55.17 57.88 58.66 58.95 59.63 60.47 59.75 62.08 62.79 63.60 63.78 63.78 64.38 65.26 67.16 68.42 69.12 68.81 67.85 68.04 68.47 68.29
63.45 65.09 66.19 65.78 65.99 66.17 65.57 65.43 65.59 64.94 64.22 63.53 63.39 62.65 62.52 61.70 60.54 58.14 56.94 53.13 52.89 53.45 55.88 56.98 58.47 59.13 60.84 60.15 61.66 62.88 64.18 62.39 61.77 61.50 62.37 64.20 66.25 66.58 67.57 67.70 67.51 67.36 67.31
63.89 66.05 66.98 66.73 66.26 66.56 65.93 65.46 65.74 64.97 64.48 64.06 63.56 63.14 62.16 61.42 58.98 59.34 56.46 53.80 51.39 51.66 53.11 54.51 58.31 61.02 61.43 61.16 62.41 63.28 61.65 61.61 60.78 59.91 60.40 61.46 63.27 64.33 65.42 65.72 65.98 66.02 65.71
64.81 65.53 65.86 66.13 66.29 66.20 65.64 64.62 64.81 64.61 64.40 62.77 61.00 60.05 59.03 58.79 59.80 57.99 56.16 55.56 54.31 49.98 50.49 53.69 56.02 60.08 61.45 61.81 62.11 61.62 60.82 61.67 61.29 59.41 59.81 60.45 61.47 62.33 62.35 62.66 62.84 63.30 63.30
65.29 65.68 65.61 65.55 65.61 65.79 65.75 65.84 64.98 64.33 61.83 61.61 61.48 59.21 58.45 58.54 57.48 57.46 57.06 56.22 54.88 53.13 50.17 53.50 56.06 59.33 61.12 60.78 63.45 61.75 61.13 61.43 60.12 59.46 60.16 59.68 59.88 60.22 60.59 60.74 61.11 61.94 61.97
65.34 65.46 65.55 65.19 65.55 65.39 65.82 65.10 64.09 62.96 62.67 61.19 59.66 59.17 58.67 58.95 58.36 57.80 56.88 55.62 55.06 54.34 52.53 54.37 57.32 59.97 60.04 60.98 61.32 61.48 61.50 60.90 60.15 59.33 60.40 58.93 58.25 58.39 58.89 59.39 59.44 60.10 60.34
65.52 65.94 66.56 66.47 66.07 65.83 64.75 63.43 62.32 62.52 60.98 59.57 59.29 59.03 59.00 60.58 57.84 57.62 57.64 55.22 55.04 54.98 54.50 53.55 57.48 59.31 58.73 60.25 60.80 60.58 60.90 61.51 61.05 59.76 58.39 57.30 56.78 56.80 57.24 56.94 57.50 57.87 57.18
66.54 66.72 65.89 65.80 65.85 64.30 63.27 63.11 63.04 61.51 60.24 59.86 59.51 59.11 59.28 59.68 58.14 56.88 56.32 55.06 54.54 56.92 56.18 56.42 57.99 59.81 59.48 59.61 58.95 59.31 59.17 59.56 60.42 60.18 57.28 56.42 56.04 55.83 56.40 56.20 55.96 55.46 54.25
65.56 65.46 65.47 65.25 65.16 64.47 63.94 62.85 62.11 59.97 59.76 59.74 60.15 59.99 59.65 59.44 60.52 58.68 56.40 55.08 55.76 56.76 58.39 58.92 58.39 57.97 57.79 58.51 58.59 57.60 56.86 58.47 57.63 59.07 58.13 56.94 56.22 56.18 55.67 55.61 56.32 55.88 53.13
65.54 65.20 64.08 63.81 63.50 63.16 62.30 60.56 60.11 59.17 58.80 59.15 59.66 60.69 60.71 60.99 59.55 58.77 57.40 55.72 56.00 56.66 58.21 57.74 57.40 57.22 56.68 56.86 56.36 57.28 56.34 56.86 57.44 57.81 57.83 58.19 58.25 58.11 56.88 56.30 58.22 56.62 52.77
63.06 62.87 61.71 61.60 59.57 58.76 50.66 53.93 58.65 59.43 59.26 58.81 58.66 59.30 59.48 59.86 58.13 54.96 55.58 55.34 57.24 58.44 58.38 57.24 55.15 56.68 56.68 56.46 57.02 56.88 56.72 56.42 54.20 58.83 57.60 56.58 59.17 57.63 58.31 59.18 54.51 52.52 51.21
59.77 58.93 57.62 57.44 56.14 55.19 47.21 49.37 53.12 59.06 58.58 57.98 57.84 57.96 58.80 60.04 59.01 57.42 52.59 53.47 53.05 52.66 56.11 57.19 57.19 56.77 56.10 56.98 57.14 56.70 56.38 54.64 54.90 57.32 57.96 55.11 57.97 56.56 58.19 55.39 51.58 50.05 49.54
57.78 57.04 56.52 56.90 56.30 54.05 47.21 47.57 51.38 58.19 57.40 57.48 57.76 58.06 58.24 58.30 58.28 58.17 57.56 56.60 56.34 56.52 56.28 57.71 57.64 56.50 56.78 57.85 57.79 57.71 54.30 56.54 56.78 56.48 56.92 54.00 55.96 54.40 56.38 56.00 50.29 49.29 48.59
57.52 56.42 57.00 56.88 56.72 55.82 46.85 46.85 54.81 56.88 56.20 58.31 58.26 59.34 60.11 59.52 49.39 47.94 57.56 56.00 54.43 53.80 50.22 50.36 50.78 49.21 48.30 49.78 54.67 56.64 54.67 55.88 54.00 53.86 56.06 55.21 54.43 54.02 55.23 54.07 53.32 49.53 48.26
58.38 57.54 56.12 57.54 53.96 55.96 45.04 46.49 53.73 56.40 56.76 57.06 57.26 56.16 50.29 54.40 46.31 47.57 57.24 56.94 55.56 54.69 54.77 54.87 54.79 50.91 51.44 52.24 51.06 57.97 57.00 55.66 53.78 53.49 55.37 54.11 53.84 54.17 53.54 54.17 53.93 52.54 51.14

GFSMA_sfc_wetblb_048.txt.gz
Wetbulb
65.32 65.14 65.60 64.59 64.97 64.66 65.18 64.96 64.96 65.70 66.68 67.02 66.92 67.12 66.98 66.98 66.67 66.50 66.86 68.63 70.00 70.65 71.37 72.45 72.35 72.37 71.14 71.10 71.89 71.85 71.57 71.62 71.51 70.97 69.90 69.79 69.45 69.87 70.11 69.71 69.28 69.48 69.57
65.32 64.38 64.18 64.05 63.19 63.75 64.03 64.48 64.21 64.29 65.05 66.01 65.88 66.55 66.87 66.75 66.52 66.62 66.84 67.52 69.22 70.43 71.50 71.94 72.39 72.13 71.21 70.45 71.27 71.78 71.30 70.98 71.26 71.23 70.49 70.12 69.28 69.49 69.89 69.57 69.51 68.97 68.61
64.61 64.30 63.23 62.91 63.25 62.67 63.33 63.95 63.58 63.54 63.60 64.30 64.59 65.08 65.96 66.38 65.93 66.43 66.72 67.12 67.60 69.33 70.95 71.30 71.53 71.23 70.82 70.77 70.88 70.29 70.93 70.56 70.87 70.69 70.31 70.32 69.82 69.64 69.48 69.61 69.86 69.62 68.89
65.20 63.82 62.72 62.22 62.61 62.22 62.74 63.29 62.98 62.63 62.69 62.86 63.09 63.90 64.57 65.14 65.58 66.15 66.42 66.85 68.01 69.34 69.80 71.19 71.15 71.19 70.83 70.31 70.54 70.49 70.48 70.48 69.91 70.17 69.95 70.55 70.29 69.63 69.52 69.72 69.87 69.80 69.06
65.30 63.82 62.72 62.31 61.74 61.84 62.19 62.66 62.53 62.94 61.72 62.00 62.70 63.22 64.24 64.92 65.92 66.24 66.50 67.26 67.66 69.01 69.61 68.77 69.19 69.71 70.29 70.30 70.17 69.73 69.92 70.10 69.83 69.54 69.93 70.05 70.39 70.20 69.62 69.15 69.50 70.03 69.49
65.28 64.00 63.25 62.50 61.91 61.60 61.81 62.29 62.32 62.63 62.23 62.46 62.75 63.58 64.36 65.19 65.92 66.07 66.97 67.39 67.44 68.28 68.73 67.80 67.73 67.78 69.33 70.07 70.31 70.05 69.58 69.63 69.69 69.76 69.25 69.44 69.84 69.99 69.78 69.15 69.00 69.26 69.60
66.08 64.61 64.19 63.18 62.23 61.93 62.24 62.49 62.49 62.10 61.74 63.02 62.44 62.57 63.61 65.03 65.61 66.37 67.11 66.55 66.66 67.45 67.81 67.28 67.26 67.22 68.05 69.45 69.42 69.36 69.71 69.45 70.19 69.38 69.07 68.65 68.67 69.29 69.78 69.27 69.12 68.87 69.14
66.73 65.87 64.90 64.26 63.32 62.72 62.46 62.45 62.61 61.68 62.40 63.03 61.38 61.61 60.53 62.57 63.44 65.50 65.67 65.76 65.79 66.50 66.48 66.49 66.43 66.25 66.61 67.08 68.52 68.65 69.34 69.09 69.11 69.55 68.80 68.02 68.65 69.15 69.62 69.49 69.27 68.82 68.73
67.62 67.02 65.63 65.41 64.16 64.04 62.43 62.97 63.26 62.60 61.43 61.99 63.67 62.81 58.89 58.94 59.35 60.74 62.88 64.04 64.74 64.81 65.34 65.66 65.68 65.77 66.14 66.50 66.65 67.82 68.12 68.46 68.84 69.38 69.19 68.33 68.75 69.27 69.47 69.44 69.13 68.95 68.91
68.64 67.93 66.86 66.23 65.37 64.70 63.99 63.16 64.09 63.79 63.05 61.41 62.47 64.01 63.95 62.48 59.78 58.64 61.15 61.64 62.63 63.14 63.61 63.85 64.74 65.48 65.76 66.10 65.71 66.02 65.85 67.13 68.22 69.14 68.49 68.94 68.94 68.81 69.22 69.70 69.32 68.68 68.89
67.59 68.15 68.31 67.08 66.03 65.30 65.41 63.97 64.11 63.38 64.05 63.22 63.76 63.43 63.26 63.09 62.88 59.51 58.13 60.21 60.66 62.28 62.98 63.31 63.85 64.65 64.79 65.23 65.39 64.72 64.97 65.28 66.09 67.19 67.29 68.61 68.79 68.85 69.23 69.44 69.07 68.60 67.99
63.84 65.68 67.37 67.46 66.73 66.14 65.45 64.54 64.71 64.25 64.05 65.13 64.77 64.31 63.30 62.63 61.23 59.64 60.03 58.60 59.21 60.32 61.33 62.79 63.15 63.57 63.96 64.11 64.08 63.38 62.69 63.10 63.48 64.17 65.26 66.93 68.19 69.08 69.55 69.05 68.48 68.26 67.91
62.75 64.18 66.12 66.22 66.19 66.46 65.90 65.67 65.10 65.17 65.20 64.48 64.86 64.30 64.97 64.25 62.67 62.48 60.86 57.35 58.29 58.39 60.17 61.21 62.55 63.13 63.43 63.40 64.07 63.75 63.40 62.57 61.72 61.86 62.89 64.26 65.99 67.64 67.72 68.00 67.89 68.09 68.17
62.91 65.20 66.74 66.88 66.81 66.84 66.46 66.52 66.22 66.11 65.64 65.10 64.48 64.20 63.88 63.51 62.14 61.41 60.79 58.74 56.27 56.75 57.63 59.97 61.91 62.34 62.97 64.01 63.63 63.13 64.39 61.71 60.79 60.05 60.55 61.68 63.54 64.41 65.10 65.63 65.50 66.23 66.41
64.00 65.56 66.95 66.70 66.90 67.13 67.13 66.68 66.15 65.62 65.80 64.65 64.63 64.15 63.18 62.98 62.94 61.98 60.96 60.57 60.01 56.66 56.27 58.34 60.04 62.19 63.28 64.32 63.46 63.71 64.22 61.42 61.03 59.36 59.46 60.02 61.00 62.08 62.68 62.28 62.93 63.61 63.50
65.45 65.85 66.22 66.90 67.04 67.31 66.82 66.21 65.75 65.72 64.38 63.88 63.53 62.76 61.62 61.56 61.12 60.20 60.04 60.25 59.77 58.90 56.48 57.50 59.79 60.89 62.27 63.44 63.98 63.21 63.05 61.81 59.63 59.22 59.54 59.56 59.70 60.24 60.62 60.66 60.92 61.69 61.87
65.60 66.18 66.81 66.81 66.95 66.59 66.52 65.98 65.80 64.78 63.49 63.43 62.80 61.96 61.42 61.48 60.65 60.57 60.23 59.84 59.04 58.60 57.61 58.45 60.50 62.11 61.45 61.58 62.34 62.02 62.68 62.68 62.02 59.40 58.56 58.82 58.18 58.36 58.46 58.74 59.52 59.98 60.01
66.03 66.48 66.68 66.70 66.76 66.43 66.03 65.57 64.41 64.12 63.76 62.24 61.67 61.26 60.99 61.45 60.98 60.65 60.38 59.69 59.32 58.93 58.53 57.45 59.27 59.91 59.56 60.97 61.75 60.57 61.64 62.44 62.35 59.83 58.52 57.15 56.61 56.83 56.81 57.35 57.45 57.43 56.87
65.89 66.55 66.61 66.92 66.52 66.05 65.88 64.99 64.61 63.77 63.23 62.25 61.83 61.37 61.29 61.45 60.57 60.06 59.75 59.32 59.13 59.37 59.42 58.55 58.58 60.06 59.95 60.24 59.52 59.54 60.62 61.16 61.45 59.86 56.75 55.88 55.90 56.75 56.25 56.61 56.63 55.56 54.62
66.28 66.57 67.03 66.36 65.97 65.23 64.92 64.55 64.08 63.32 62.20 62.24 62.12 62.17 61.79 61.84 61.36 60.43 59.64 59.04 59.11 59.63 60.08 59.42 58.67 57.67 58.60 59.16 59.64 58.05 57.88 59.64 59.31 59.76 57.96 56.69 56.35 55.66 55.68 56.19 56.53 56.33 53.72
66.57 66.25 65.63 65.94 65.43 64.88 64.15 63.84 62.69 62.13 61.58 61.34 61.69 61.92 62.42 61.27 59.49 60.10 59.78 58.64 59.78 59.73 59.05 58.05 57.53 57.17 57.07 57.37 57.35 58.31 57.63 58.46 59.12 59.83 59.08 59.49 58.70 58.40 57.72 56.73 58.68 57.81 53.20
65.01 64.90 64.72 64.50 64.17 61.59 50.87 53.46 59.47 61.42 61.17 61.32 61.19 61.63 62.39 59.90 57.59 55.17 54.90 54.84 59.29 60.30 58.85 58.35 57.61 56.61 57.23 57.51 58.18 57.39 57.15 56.19 56.01 59.54 58.30 57.33 59.52 58.14 58.84 60.18 55.02 52.73 51.25
63.96 62.98 62.09 62.21 59.74 56.75 47.97 49.24 52.30 61.88 61.48 61.17 61.13 61.33 61.22 61.73 59.31 59.29 52.33 52.42 53.30 53.45 56.60 59.59 58.78 58.30 56.75 58.21 58.68 58.02 58.25 58.01 57.05 58.56 59.09 56.19 58.32 56.89 59.34 56.67 51.72 50.84 50.76
60.29 59.56 58.81 58.09 57.29 53.70 46.34 46.70 50.51 61.03 60.82 60.53 60.77 60.91 61.50 60.34 60.29 58.89 57.95 58.50 59.05 60.04 60.17 60.20 60.93 60.71 59.96 59.85 60.25 60.25 59.25 58.27 57.39 57.87 59.25 55.30 56.49 55.30 57.78 56.57 50.54 49.88 48.91
57.93 57.33 57.83 58.07 57.21 55.85 45.79 45.79 55.33 59.49 58.89 59.56 59.93 60.72 60.66 60.22 49.06 49.78 58.82 57.67 57.41 55.93 50.61 51.01 51.82 49.60 47.79 49.63 55.45 59.30 57.52 55.70 54.34 56.01 57.93 56.57 55.51 55.95 57.11 57.11 55.27 49.72 48.09
57.35 57.75 57.77 58.52 54.10 56.33 44.89 45.79 55.11 58.61 58.00 58.60 59.75 58.06 51.05 55.11 44.16 46.70 59.54 57.97 56.55 56.01 56.43 57.01 55.79 51.84 51.59 51.48 51.19 61.04 59.16 56.41 55.36 54.99 57.84 57.20 56.21 56.38 54.78 56.33 57.12 56.99 55.28